KLM777 EHAM-TNCM

Flight info

Callsign KLM777
Flight time 9h 3m
Altitude 36000
Route VALKO3S IDRID L980 LOGAN DCT SAM M195 LORKU DCT COQUE DCT RIVAK/M084F360 UN460 SIVIR DCT BERUX/N0481F360 DCT KOPAS/M084F360 DCT 4030N02000W 37N030W 3330N04000W 30N050W 26N055W DCT RKDIA M576 OBIKE/N0476F360 L335 TRNKY DCT
Aircraft B77W/H-SDE1E2E3FGHIJ2J3J4J5M1RWXY/LB1D1

Departure

Time 2026-04-13 11:53
Airport Amsterdam Airport Schiphol (EHAM)

Arrival

Time 2026-04-13 20:56
Airport Princess Juliana International Airport (TNCM)
Time Latitude Longitude Altitude Speed Heading
2026-04-13 11:40 52.31372 4.76562 4 ft 4 kts 194°
2026-04-13 11:41 52.31349 4.76543 4 ft 4 kts 213°
2026-04-13 11:41 52.31331 4.76514 4 ft 4 kts 232°
2026-04-13 11:41 52.31325 4.76481 4 ft 4 kts 265°
2026-04-13 11:41 52.31333 4.76454 4 ft 4 kts 304°
2026-04-13 11:42 52.31351 4.76431 4 ft 4 kts 331°
2026-04-13 11:42 52.31370 4.76421 4 ft 0 kts 342°
2026-04-13 11:45 52.31370 4.76420 4 ft 1 kts 342°
2026-04-13 11:45 52.31385 4.76414 4 ft 4 kts 348°
2026-04-13 11:46 52.31423 4.76430 4 ft 7 kts 33°
2026-04-13 11:46 52.31455 4.76511 4 ft 10 kts 70°
2026-04-13 11:46 52.31469 4.76642 4 ft 13 kts 84°
2026-04-13 11:46 52.31477 4.76812 4 ft 17 kts 86°
2026-04-13 11:47 52.31482 4.77005 4 ft 17 kts 87°
2026-04-13 11:47 52.31463 4.77180 4 ft 16 kts 119°
2026-04-13 11:47 52.31401 4.77310 4 ft 14 kts 129°
2026-04-13 11:47 52.31329 4.77439 4 ft 17 kts 140°
2026-04-13 11:48 52.31218 4.77499 4 ft 17 kts 178°
2026-04-13 11:48 52.31090 4.77493 4 ft 20 kts 183°
2026-04-13 11:48 52.30968 4.77483 4 ft 16 kts 183°
2026-04-13 11:48 52.30843 4.77471 4 ft 19 kts 183°
2026-04-13 11:49 52.30739 4.77461 4 ft 16 kts 183°
2026-04-13 11:49 52.30639 4.77490 4 ft 7 kts 158°
2026-04-13 11:49 52.30630 4.77496 4 ft 2 kts 155°
2026-04-13 11:49 52.30605 4.77519 4 ft 6 kts 150°
2026-04-13 11:50 52.30557 4.77559 4 ft 10 kts 154°
2026-04-13 11:50 52.30486 4.77615 3 ft 13 kts 155°
2026-04-13 11:50 52.30426 4.77632 4 ft 6 kts 202°
2026-04-13 11:50 52.30397 4.77590 3 ft 0 kts 234°
2026-04-13 11:52 52.30345 4.77463 3 ft 41 kts 237°
2026-04-13 11:52 52.30061 4.76718 3 ft 111 kts 238°
2026-04-13 11:52 52.29541 4.75365 3 ft 168 kts 238°
2026-04-13 11:52 52.28847 4.73541 62 ft 202 kts 239°
2026-04-13 11:53 52.28137 4.71563 588 ft 202 kts 240°
2026-04-13 11:53 52.27454 4.69575 1281 ft 191 kts 237°
2026-04-13 11:53 52.26524 4.68023 1748 ft 197 kts 219°
2026-04-13 11:53 52.25436 4.66484 1963 ft 215 kts 221°
2026-04-13 11:54 52.24305 4.64740 2197 ft 233 kts 230°
2026-04-13 11:54 52.23624 4.62263 2458 ft 248 kts 256°
2026-04-13 11:54 52.23162 4.59488 2953 ft 256 kts 252°
2026-04-13 11:54 52.22613 4.56709 3605 ft 262 kts 251°
2026-04-13 11:55 52.22030 4.53852 4164 ft 269 kts 251°
2026-04-13 11:55 52.21422 4.50939 4777 ft 272 kts 251°
2026-04-13 11:55 52.20808 4.48006 5422 ft 276 kts 250°
2026-04-13 11:55 52.20177 4.45049 6081 ft 277 kts 250°
2026-04-13 11:56 52.19544 4.42070 6726 ft 279 kts 250°
2026-04-13 11:56 52.18912 4.39063 7349 ft 282 kts 250°
2026-04-13 11:56 52.18271 4.36027 7973 ft 285 kts 250°
2026-04-13 11:56 52.17624 4.32957 8507 ft 288 kts 250°
2026-04-13 11:57 52.16967 4.29853 9058 ft 291 kts 250°
2026-04-13 11:57 52.16305 4.26729 9614 ft 293 kts 250°
2026-04-13 11:57 52.15655 4.23668 10227 ft 293 kts 250°
2026-04-13 11:57 52.14973 4.20466 10486 ft 309 kts 250°
2026-04-13 11:58 52.14246 4.17065 10648 ft 328 kts 250°
2026-04-13 11:58 52.13472 4.13449 10823 ft 348 kts 250°
2026-04-13 11:58 52.12655 4.09634 11084 ft 364 kts 250°
2026-04-13 11:58 52.11812 4.05699 11605 ft 373 kts 250°
2026-04-13 11:59 52.09243 3.93736 14029 ft 377 kts 249°
2026-04-13 11:59 52.08370 3.89692 14797 ft 379 kts 248°
2026-04-13 12:00 52.07492 3.85643 15539 ft 381 kts 248°
2026-04-13 12:00 52.06606 3.81559 16292 ft 383 kts 247°
2026-04-13 12:00 52.05714 3.77470 17023 ft 385 kts 247°
2026-04-13 12:00 52.04814 3.73353 17740 ft 387 kts 246°
2026-04-13 12:01 52.03911 3.69229 18466 ft 389 kts 246°
2026-04-13 12:01 52.03003 3.65080 19117 ft 391 kts 246°
2026-04-13 12:01 52.02088 3.60901 19742 ft 394 kts 245°
2026-04-13 12:01 52.01166 3.56703 20368 ft 396 kts 245°
2026-04-13 12:02 52.00235 3.52485 20994 ft 398 kts 245°
2026-04-13 12:02 51.99171 3.48380 21593 ft 394 kts 235°
2026-04-13 12:02 51.97605 3.44751 22117 ft 393 kts 228°
2026-04-13 12:02 51.95922 3.41231 22642 ft 396 kts 228°
2026-04-13 12:03 51.94245 3.37674 23202 ft 398 kts 229°
2026-04-13 12:03 51.92578 3.34073 23753 ft 400 kts 229°
2026-04-13 12:03 51.91479 3.31666 24102 ft 401 kts 229°
2026-04-13 12:03 51.89261 3.26785 24767 ft 404 kts 229°
2026-04-13 12:04 51.88153 3.24346 25076 ft 406 kts 229°
2026-04-13 12:04 51.86614 3.20486 25488 ft 413 kts 237°
2026-04-13 12:04 51.85462 3.16174 25933 ft 421 kts 244°
2026-04-13 12:04 51.84593 3.11615 26383 ft 428 kts 249°
2026-04-13 12:05 51.84110 3.06806 26780 ft 438 kts 256°
2026-04-13 12:05 51.83818 3.01894 27173 ft 441 kts 257°
2026-04-13 12:05 51.83539 2.96945 27565 ft 443 kts 256°
2026-04-13 12:05 51.83249 2.91974 27958 ft 444 kts 256°
2026-04-13 12:06 51.82942 2.86990 28336 ft 446 kts 256°
2026-04-13 12:06 51.82621 2.82010 28685 ft 447 kts 255°
2026-04-13 12:06 51.82289 2.76999 29013 ft 448 kts 255°
2026-04-13 12:06 51.81954 2.71985 29388 ft 448 kts 255°
2026-04-13 12:07 51.81620 2.66996 29859 ft 445 kts 255°
2026-04-13 12:07 51.81286 2.62040 30340 ft 442 kts 254°
2026-04-13 12:07 51.80949 2.57120 30744 ft 441 kts 254°
2026-04-13 12:07 51.80609 2.52216 31143 ft 438 kts 254°
2026-04-13 12:08 51.80268 2.47330 31536 ft 437 kts 254°
2026-04-13 12:08 51.79927 2.42454 31883 ft 436 kts 254°
2026-04-13 12:08 51.79584 2.37600 32217 ft 435 kts 254°
2026-04-13 12:08 51.79241 2.32758 32581 ft 432 kts 254°
2026-04-13 12:09 51.78899 2.27944 32919 ft 431 kts 254°
2026-04-13 12:09 51.78555 2.23144 33228 ft 430 kts 254°
2026-04-13 12:09 51.78232 2.18343 33504 ft 430 kts 255°
2026-04-13 12:09 51.77946 2.13527 33647 ft 434 kts 256°
2026-04-13 12:10 51.77666 2.08646 33659 ft 439 kts 256°
2026-04-13 12:10 51.77384 2.03714 33794 ft 441 kts 256°
2026-04-13 12:10 51.77101 1.98791 34099 ft 439 kts 256°
2026-04-13 12:10 51.76814 1.93898 34386 ft 438 kts 257°
2026-04-13 12:11 51.76519 1.88993 34496 ft 440 kts 257°
2026-04-13 12:11 51.76217 1.84057 34607 ft 443 kts 257°
2026-04-13 12:11 51.75915 1.79116 34749 ft 444 kts 257°
2026-04-13 12:11 51.75608 1.74137 34873 ft 446 kts 257°
2026-04-13 12:12 51.75298 1.69148 34972 ft 448 kts 257°
2026-04-13 12:12 51.74870 1.64198 35077 ft 444 kts 252°
2026-04-13 12:12 51.74167 1.59421 35183 ft 442 kts 248°
2026-04-13 12:13 51.72068 1.50140 35315 ft 442 kts 242°
2026-04-13 12:13 51.69707 1.40956 35472 ft 445 kts 243°
2026-04-13 12:14 51.67333 1.31715 35639 ft 448 kts 243°
2026-04-13 12:14 51.64947 1.22388 35749 ft 451 kts 243°
2026-04-13 12:15 51.62550 1.13019 35903 ft 454 kts 244°
2026-04-13 12:15 51.60130 1.03602 36002 ft 456 kts 244°
2026-04-13 12:16 51.57691 0.94151 35995 ft 459 kts 244°
2026-04-13 12:16 51.55231 0.84647 35996 ft 462 kts 244°
2026-04-13 12:17 51.52745 0.75115 35997 ft 464 kts 244°
2026-04-13 12:17 51.50244 0.65555 35987 ft 465 kts 244°
2026-04-13 12:18 51.47735 0.55991 35993 ft 465 kts 244°
2026-04-13 12:18 51.45215 0.46430 35996 ft 465 kts 244°
2026-04-13 12:19 51.42702 0.36936 35998 ft 465 kts 244°
2026-04-13 12:19 51.40169 0.27396 36008 ft 465 kts 244°
2026-04-13 12:20 51.37638 0.17891 35978 ft 464 kts 244°
2026-04-13 12:20 51.35086 0.08395 35994 ft 464 kts 244°
2026-04-13 12:21 51.32669 -0.00575 35996 ft 464 kts 244°
2026-04-13 12:21 51.30125 -0.10030 35989 ft 461 kts 246°
2026-04-13 12:22 51.27562 -0.19444 35982 ft 463 kts 248°
2026-04-13 12:22 51.24975 -0.28893 35996 ft 466 kts 248°
2026-04-13 12:23 51.22387 -0.38445 36001 ft 471 kts 248°
2026-04-13 12:23 51.19745 -0.48036 35994 ft 474 kts 248°
2026-04-13 12:24 51.17089 -0.57669 35997 ft 476 kts 248°
2026-04-13 12:24 51.14410 -0.67313 35979 ft 476 kts 248°
2026-04-13 12:25 51.11732 -0.76940 35991 ft 476 kts 248°
2026-04-13 12:25 51.09044 -0.86570 35984 ft 475 kts 247°
2026-04-13 12:26 51.06362 -0.96138 35985 ft 474 kts 247°
2026-04-13 12:26 51.03670 -1.05698 35985 ft 473 kts 247°
2026-04-13 12:27 51.00983 -1.15213 35985 ft 472 kts 247°
2026-04-13 12:27 50.96823 -1.29342 35977 ft 471 kts 239°
2026-04-13 12:28 50.92593 -1.37293 35998 ft 475 kts 224°
2026-04-13 12:28 50.87192 -1.43404 35999 ft 479 kts 216°
2026-04-13 12:29 50.81565 -1.49082 35990 ft 480 kts 216°
2026-04-13 12:29 50.75958 -1.54820 35992 ft 481 kts 216°
2026-04-13 12:30 50.70355 -1.60620 35990 ft 482 kts 216°
2026-04-13 12:30 50.64738 -1.66428 35998 ft 483 kts 216°
2026-04-13 12:31 50.59110 -1.72223 36001 ft 484 kts 216°
2026-04-13 12:31 50.53510 -1.77973 35997 ft 485 kts 216°
2026-04-13 12:32 50.47840 -1.83745 36005 ft 486 kts 216°
2026-04-13 12:32 50.42162 -1.89496 36000 ft 486 kts 216°
2026-04-13 12:33 50.36474 -1.95243 36005 ft 487 kts 216°
2026-04-13 12:33 50.30781 -2.00984 35995 ft 487 kts 216°
2026-04-13 12:34 50.25081 -2.06715 35997 ft 487 kts 216°
2026-04-13 12:34 50.19355 -2.12362 36008 ft 487 kts 215°
2026-04-13 12:35 50.13605 -2.17934 36013 ft 487 kts 215°
2026-04-13 12:35 50.07858 -2.23502 36009 ft 486 kts 215°
2026-04-13 12:36 50.02122 -2.29055 36015 ft 486 kts 215°
2026-04-13 12:36 49.96380 -2.34610 36017 ft 485 kts 215°
2026-04-13 12:37 49.90690 -2.40115 36018 ft 485 kts 216°
2026-04-13 12:37 49.84987 -2.45685 36018 ft 485 kts 216°
2026-04-13 12:38 49.79281 -2.51264 36019 ft 485 kts 216°
2026-04-13 12:38 49.73572 -2.56819 36022 ft 485 kts 216°
2026-04-13 12:39 49.67852 -2.62371 36019 ft 486 kts 216°
2026-04-13 12:39 49.62122 -2.67902 36019 ft 486 kts 216°
2026-04-13 12:40 49.56384 -2.73434 36018 ft 486 kts 216°
2026-04-13 12:40 49.50641 -2.78954 36019 ft 488 kts 216°
2026-04-13 12:41 49.44887 -2.84465 36020 ft 488 kts 216°
2026-04-13 12:41 49.39123 -2.89968 36020 ft 487 kts 216°
2026-04-13 12:42 49.33366 -2.95455 36017 ft 488 kts 216°
2026-04-13 12:42 49.27596 -3.00940 36016 ft 488 kts 216°
2026-04-13 12:43 49.21822 -3.06417 36014 ft 489 kts 216°
2026-04-13 12:43 49.16025 -3.11901 36013 ft 490 kts 216°
2026-04-13 12:44 49.10214 -3.17371 36010 ft 491 kts 216°
2026-04-13 12:44 49.04408 -3.22834 36004 ft 491 kts 216°
2026-04-13 12:45 48.98590 -3.28287 36000 ft 490 kts 216°
2026-04-13 12:45 48.92775 -3.33716 35995 ft 490 kts 216°
2026-04-13 12:46 48.86969 -3.39133 36002 ft 490 kts 216°
2026-04-13 12:46 48.81192 -3.44502 35995 ft 490 kts 216°
2026-04-13 12:47 48.75376 -3.49888 35990 ft 490 kts 216°
2026-04-13 12:47 48.69561 -3.55265 35988 ft 490 kts 216°
2026-04-13 12:48 48.63735 -3.60639 35997 ft 490 kts 216°
2026-04-13 12:48 48.57902 -3.65998 36009 ft 491 kts 216°
2026-04-13 12:49 48.52071 -3.71348 36020 ft 490 kts 216°
2026-04-13 12:49 48.46235 -3.76687 36018 ft 491 kts 216°
2026-04-13 12:50 48.40387 -3.82020 36018 ft 491 kts 216°
2026-04-13 12:50 48.35523 -3.86445 36021 ft 492 kts 216°
2026-04-13 12:51 48.29664 -3.91759 36027 ft 492 kts 216°
2026-04-13 12:51 48.23794 -3.97066 36030 ft 493 kts 216°
2026-04-13 12:52 48.17923 -4.02370 36026 ft 493 kts 216°
2026-04-13 12:52 48.12043 -4.07658 36031 ft 493 kts 216°
2026-04-13 12:53 48.06153 -4.12946 36021 ft 493 kts 216°
2026-04-13 12:53 48.00271 -4.18211 36019 ft 493 kts 216°
2026-04-13 12:54 47.94391 -4.23459 36018 ft 492 kts 216°
2026-04-13 12:54 47.88517 -4.28694 36015 ft 491 kts 216°
2026-04-13 12:55 47.82640 -4.33910 36021 ft 491 kts 216°
2026-04-13 12:55 47.76769 -4.39112 36025 ft 491 kts 216°
2026-04-13 12:56 47.70894 -4.44299 36021 ft 491 kts 216°
2026-04-13 12:56 47.65013 -4.49480 36020 ft 492 kts 216°
2026-04-13 12:57 47.59124 -4.54655 36017 ft 492 kts 216°
2026-04-13 12:57 47.53230 -4.59819 36023 ft 492 kts 216°
2026-04-13 12:58 47.47331 -4.64975 36030 ft 493 kts 216°
2026-04-13 12:58 47.41424 -4.70129 36030 ft 493 kts 216°
2026-04-13 12:59 47.35499 -4.75277 36025 ft 495 kts 216°
2026-04-13 12:59 47.29568 -4.80419 36029 ft 495 kts 216°
2026-04-13 13:00 47.23626 -4.85562 36029 ft 496 kts 216°
2026-04-13 13:00 47.17712 -4.90665 36026 ft 496 kts 216°
2026-04-13 13:01 47.11744 -4.95868 36021 ft 492 kts 220°
2026-04-13 13:01 47.09128 -4.99007 36023 ft 482 kts 231°
2026-04-13 13:01 47.06962 -5.02639 36032 ft 476 kts 239°
2026-04-13 13:02 47.03747 -5.10898 36041 ft 466 kts 249°
2026-04-13 13:02 47.00898 -5.19489 36030 ft 467 kts 249°
2026-04-13 13:03 46.98024 -5.28044 36031 ft 469 kts 249°
2026-04-13 13:03 46.95114 -5.36574 36036 ft 470 kts 249°
2026-04-13 13:04 46.92165 -5.45136 36036 ft 470 kts 249°
2026-04-13 13:04 46.89217 -5.53678 36042 ft 470 kts 249°
2026-04-13 13:05 46.86258 -5.62214 36038 ft 470 kts 248°
2026-04-13 13:05 46.83296 -5.70738 36033 ft 470 kts 248°
2026-04-13 13:06 46.80331 -5.79247 36052 ft 470 kts 248°
2026-04-13 13:06 46.77359 -5.87751 36044 ft 470 kts 248°
2026-04-13 13:07 46.74385 -5.96230 36036 ft 470 kts 248°
2026-04-13 13:07 46.71403 -6.04701 36055 ft 469 kts 248°
2026-04-13 13:08 46.68417 -6.13159 36049 ft 469 kts 248°
2026-04-13 13:08 46.65448 -6.21545 36048 ft 469 kts 248°
2026-04-13 13:09 46.62453 -6.29972 36043 ft 469 kts 248°
2026-04-13 13:09 46.59455 -6.38386 36057 ft 469 kts 248°
2026-04-13 13:10 46.56450 -6.46796 36069 ft 469 kts 248°
2026-04-13 13:10 46.53439 -6.55188 36065 ft 469 kts 248°
2026-04-13 13:11 46.50421 -6.63570 36062 ft 468 kts 248°
2026-04-13 13:11 46.47399 -6.71948 36070 ft 468 kts 248°
2026-04-13 13:12 46.44375 -6.80308 36064 ft 468 kts 248°
2026-04-13 13:12 46.41343 -6.88650 36060 ft 468 kts 248°
2026-04-13 13:13 46.38307 -6.96983 36066 ft 468 kts 248°
2026-04-13 13:13 46.35267 -7.05302 36070 ft 467 kts 248°
2026-04-13 13:14 46.32253 -7.13527 36068 ft 467 kts 248°
2026-04-13 13:14 46.29207 -7.21810 36076 ft 466 kts 248°
2026-04-13 13:15 46.26157 -7.30082 36075 ft 466 kts 248°
2026-04-13 13:15 46.23102 -7.38339 36072 ft 466 kts 248°
2026-04-13 13:16 46.20040 -7.46593 36073 ft 466 kts 248°
2026-04-13 13:16 46.16994 -7.54774 36073 ft 466 kts 248°
2026-04-13 13:17 46.13917 -7.63015 36082 ft 466 kts 248°
2026-04-13 13:17 46.10837 -7.71251 36083 ft 467 kts 248°
2026-04-13 13:18 46.07746 -7.79479 36084 ft 467 kts 247°
2026-04-13 13:18 46.04650 -7.87703 36086 ft 467 kts 247°
2026-04-13 13:19 46.01658 -7.95981 36078 ft 462 kts 254°
2026-04-13 13:19 46.00104 -8.04794 36093 ft 451 kts 268°
2026-04-13 13:20 45.99935 -8.13710 36089 ft 445 kts 275°
2026-04-13 13:20 46.00014 -8.22623 36086 ft 446 kts 275°
2026-04-13 13:21 46.00053 -8.31553 36085 ft 447 kts 274°
2026-04-13 13:21 46.00058 -8.40488 36080 ft 446 kts 274°
2026-04-13 13:22 46.00054 -8.49397 36086 ft 445 kts 274°
2026-04-13 13:22 46.00041 -8.58295 36083 ft 445 kts 274°
2026-04-13 13:23 46.00020 -8.67178 36084 ft 444 kts 273°
2026-04-13 13:23 45.98914 -8.75980 36080 ft 455 kts 257°
2026-04-13 13:24 45.96210 -8.84235 36079 ft 466 kts 245°
2026-04-13 13:24 45.92761 -8.92131 36073 ft 467 kts 244°
2026-04-13 13:25 45.89286 -9.00012 36074 ft 467 kts 244°
2026-04-13 13:26 45.84126 -9.11880 36075 ft 467 kts 245°
2026-04-13 13:26 45.80696 -9.19802 36077 ft 468 kts 245°
2026-04-13 13:27 45.77262 -9.27713 36082 ft 467 kts 245°
2026-04-13 13:27 45.73824 -9.35610 36084 ft 467 kts 245°
2026-04-13 13:28 45.70379 -9.43503 36081 ft 467 kts 245°
2026-04-13 13:28 45.66926 -9.51386 36071 ft 467 kts 245°
2026-04-13 13:29 45.63474 -9.59242 36079 ft 466 kts 245°
2026-04-13 13:29 45.60029 -9.67064 36090 ft 464 kts 245°
2026-04-13 13:30 45.56587 -9.74854 36092 ft 464 kts 245°
2026-04-13 13:30 45.53144 -9.82630 36095 ft 463 kts 245°
2026-04-13 13:31 45.49693 -9.90396 36103 ft 463 kts 245°
2026-04-13 13:31 45.46240 -9.98148 36102 ft 464 kts 245°
2026-04-13 13:32 45.42781 -10.05895 36100 ft 464 kts 245°
2026-04-13 13:32 45.39315 -10.13638 36103 ft 464 kts 245°
2026-04-13 13:33 45.35836 -10.21388 36102 ft 465 kts 245°
2026-04-13 13:33 45.32374 -10.29075 36103 ft 466 kts 245°
2026-04-13 13:34 45.28878 -10.36818 36095 ft 466 kts 245°
2026-04-13 13:34 45.25373 -10.44563 36104 ft 466 kts 245°
2026-04-13 13:35 45.21871 -10.52278 36101 ft 466 kts 245°
2026-04-13 13:35 45.18358 -10.59996 36102 ft 466 kts 245°
2026-04-13 13:36 45.14840 -10.67703 36102 ft 466 kts 245°
2026-04-13 13:36 45.11315 -10.75405 36100 ft 466 kts 245°
2026-04-13 13:37 45.08386 -10.81793 36101 ft 465 kts 245°
2026-04-13 13:37 45.04858 -10.89464 36102 ft 465 kts 245°
2026-04-13 13:38 45.01327 -10.97124 36102 ft 465 kts 245°
2026-04-13 13:38 44.97752 -11.04748 36107 ft 466 kts 244°
2026-04-13 13:39 44.94078 -11.12299 36110 ft 466 kts 244°
2026-04-13 13:39 44.90396 -11.19833 36113 ft 467 kts 244°
2026-04-13 13:40 44.86710 -11.27379 36108 ft 467 kts 244°
2026-04-13 13:40 44.83026 -11.34917 36111 ft 467 kts 244°
2026-04-13 13:41 44.79338 -11.42452 36114 ft 467 kts 245°
2026-04-13 13:41 44.75647 -11.49983 36113 ft 467 kts 245°
2026-04-13 13:42 44.71951 -11.57499 36111 ft 467 kts 245°
2026-04-13 13:42 44.68253 -11.64992 36112 ft 466 kts 245°
2026-04-13 13:43 44.64552 -11.72466 36108 ft 466 kts 245°
2026-04-13 13:43 44.60854 -11.79932 36111 ft 466 kts 245°
2026-04-13 13:44 44.57150 -11.87383 36107 ft 466 kts 245°
2026-04-13 13:44 44.53433 -11.94843 36111 ft 466 kts 245°
2026-04-13 13:45 44.49706 -12.02301 36111 ft 467 kts 245°
2026-04-13 13:45 44.45970 -12.09759 36112 ft 468 kts 245°
2026-04-13 13:46 44.42223 -12.17222 36109 ft 469 kts 245°
2026-04-13 13:46 44.38470 -12.24674 36110 ft 469 kts 245°
2026-04-13 13:47 44.34713 -12.32113 36110 ft 468 kts 245°
2026-04-13 13:47 44.30954 -12.39538 36110 ft 468 kts 245°
2026-04-13 13:48 44.27197 -12.46945 36113 ft 467 kts 245°
2026-04-13 13:48 44.23441 -12.54329 36116 ft 466 kts 245°
2026-04-13 13:49 44.19684 -12.61697 36106 ft 466 kts 245°
2026-04-13 13:49 44.15928 -12.69042 36113 ft 465 kts 245°
2026-04-13 13:50 44.12167 -12.76376 36116 ft 465 kts 245°
2026-04-13 13:50 44.08410 -12.83693 36103 ft 465 kts 245°
2026-04-13 13:51 44.04649 -12.90998 36101 ft 464 kts 245°
2026-04-13 13:51 44.00912 -12.98233 36102 ft 464 kts 244°
2026-04-13 13:52 43.97421 -13.05667 36105 ft 458 kts 248°
2026-04-13 13:52 43.94095 -13.13190 36105 ft 458 kts 249°
2026-04-13 13:53 43.90762 -13.20721 36102 ft 458 kts 248°
2026-04-13 13:53 43.87411 -13.28244 36104 ft 459 kts 248°
2026-04-13 13:54 43.84045 -13.35752 36124 ft 459 kts 248°
2026-04-13 13:54 43.80671 -13.43251 36135 ft 459 kts 248°
2026-04-13 13:55 43.77299 -13.50742 36131 ft 459 kts 248°
2026-04-13 13:55 43.73922 -13.58219 36157 ft 458 kts 248°
2026-04-13 13:56 43.70543 -13.65676 36166 ft 457 kts 248°
2026-04-13 13:56 43.67163 -13.73117 36168 ft 457 kts 248°
2026-04-13 13:57 43.63781 -13.80544 36165 ft 457 kts 248°
2026-04-13 13:57 43.60396 -13.87959 36173 ft 456 kts 248°
2026-04-13 13:58 43.57012 -13.95359 36174 ft 456 kts 248°
2026-04-13 13:58 43.53627 -14.02745 36175 ft 456 kts 248°
2026-04-13 13:59 43.50231 -14.10132 36175 ft 456 kts 247°
2026-04-13 13:59 43.46830 -14.17508 36167 ft 456 kts 247°
2026-04-13 14:00 43.43421 -14.24881 36165 ft 456 kts 247°
2026-04-13 14:00 43.40014 -14.32237 36159 ft 456 kts 247°
2026-04-13 14:01 43.36623 -14.39539 36156 ft 456 kts 247°
2026-04-13 14:01 43.33208 -14.46871 36162 ft 456 kts 247°
2026-04-13 14:02 43.29782 -14.54205 36166 ft 456 kts 247°
2026-04-13 14:02 43.26355 -14.61527 36164 ft 456 kts 247°
2026-04-13 14:03 43.22922 -14.68845 36169 ft 456 kts 246°
2026-04-13 14:03 43.19482 -14.76162 36165 ft 456 kts 246°
2026-04-13 14:04 43.16045 -14.83456 36165 ft 456 kts 246°
2026-04-13 14:04 43.12594 -14.90752 36165 ft 456 kts 246°
2026-04-13 14:05 43.09143 -14.98031 36165 ft 456 kts 246°
2026-04-13 14:05 43.05691 -15.05303 36170 ft 456 kts 246°
2026-04-13 14:06 43.02230 -15.12571 36177 ft 455 kts 246°
2026-04-13 14:06 42.98776 -15.19808 36172 ft 455 kts 246°
2026-04-13 14:07 42.95315 -15.27043 36175 ft 454 kts 246°
2026-04-13 14:07 42.91853 -15.34258 36173 ft 454 kts 246°
2026-04-13 14:08 42.88389 -15.41462 36178 ft 454 kts 246°
2026-04-13 14:08 42.84918 -15.48663 36175 ft 455 kts 246°
2026-04-13 14:09 42.81440 -15.55863 36173 ft 455 kts 245°
2026-04-13 14:09 42.77955 -15.63056 36174 ft 455 kts 245°
2026-04-13 14:10 42.74483 -15.70207 36179 ft 456 kts 245°
2026-04-13 14:10 42.70963 -15.77443 36176 ft 456 kts 245°
2026-04-13 14:11 42.67478 -15.84585 36174 ft 457 kts 245°
2026-04-13 14:11 42.63964 -15.91771 36178 ft 457 kts 245°
2026-04-13 14:12 42.60441 -15.98960 36174 ft 457 kts 245°
2026-04-13 14:12 42.56915 -16.06133 36174 ft 457 kts 245°
2026-04-13 14:13 42.53385 -16.13299 36176 ft 457 kts 245°
2026-04-13 14:13 42.49855 -16.20449 36175 ft 456 kts 244°
2026-04-13 14:14 42.44552 -16.31157 36179 ft 456 kts 244°
2026-04-13 14:14 42.41014 -16.38273 36202 ft 455 kts 244°
2026-04-13 14:15 42.37483 -16.45369 36203 ft 455 kts 244°
2026-04-13 14:15 42.33945 -16.52463 36202 ft 454 kts 244°
2026-04-13 14:16 42.30408 -16.59536 36205 ft 454 kts 244°
2026-04-13 14:16 42.26873 -16.66579 36201 ft 454 kts 244°
2026-04-13 14:17 42.23319 -16.73646 36205 ft 454 kts 244°
2026-04-13 14:17 42.19778 -16.80682 36204 ft 454 kts 244°
2026-04-13 14:18 42.16223 -16.87723 36203 ft 454 kts 244°
2026-04-13 14:18 42.12668 -16.94748 36204 ft 453 kts 244°
2026-04-13 14:19 42.09115 -17.01751 36211 ft 452 kts 244°
2026-04-13 14:19 42.05562 -17.08738 36214 ft 451 kts 243°
2026-04-13 14:20 42.02036 -17.15657 36210 ft 451 kts 243°
2026-04-13 14:20 41.98487 -17.22607 36208 ft 451 kts 243°
2026-04-13 14:21 41.95511 -17.28420 36212 ft 451 kts 243°
2026-04-13 14:21 41.91954 -17.35352 36210 ft 451 kts 243°
2026-04-13 14:22 41.87818 -17.43394 36211 ft 450 kts 243°
2026-04-13 14:22 41.84834 -17.49187 36215 ft 450 kts 243°
2026-04-13 14:23 41.81269 -17.56089 36215 ft 450 kts 242°
2026-04-13 14:23 41.77701 -17.62978 36223 ft 450 kts 242°
2026-04-13 14:24 41.74135 -17.69854 36231 ft 449 kts 242°
2026-04-13 14:24 41.70593 -17.76663 36239 ft 448 kts 242°
2026-04-13 14:25 41.67027 -17.83508 36239 ft 448 kts 242°
2026-04-13 14:25 41.63453 -17.90352 36240 ft 449 kts 242°
2026-04-13 14:26 41.59872 -17.97183 36245 ft 449 kts 242°
2026-04-13 14:26 41.56291 -18.04011 36256 ft 449 kts 242°
2026-04-13 14:27 41.52705 -18.10831 36259 ft 449 kts 242°
2026-04-13 14:27 41.49117 -18.17641 36254 ft 449 kts 242°
2026-04-13 14:28 41.45524 -18.24448 36260 ft 449 kts 242°
2026-04-13 14:28 41.41922 -18.31250 36258 ft 449 kts 242°
2026-04-13 14:29 41.38317 -18.38043 36258 ft 449 kts 242°
2026-04-13 14:29 41.34710 -18.44829 36259 ft 449 kts 242°
2026-04-13 14:30 41.31093 -18.51610 36257 ft 450 kts 241°
2026-04-13 14:30 41.27469 -18.58400 36266 ft 450 kts 241°
2026-04-13 14:31 41.23840 -18.65180 36267 ft 450 kts 241°
2026-04-13 14:31 41.20202 -18.71960 36267 ft 451 kts 241°
2026-04-13 14:32 41.16559 -18.78731 36266 ft 451 kts 241°
2026-04-13 14:32 41.12914 -18.85498 36266 ft 451 kts 241°
2026-04-13 14:33 41.09287 -18.92218 36268 ft 451 kts 241°
2026-04-13 14:33 41.05634 -18.98970 36266 ft 451 kts 241°
2026-04-13 14:34 41.01974 -19.05716 36269 ft 451 kts 240°
2026-04-13 14:34 40.98309 -19.12457 36267 ft 451 kts 240°
2026-04-13 14:35 40.94640 -19.19196 36268 ft 451 kts 240°
2026-04-13 14:35 40.90964 -19.25926 36268 ft 451 kts 240°
2026-04-13 14:36 40.87283 -19.32649 36278 ft 452 kts 240°
2026-04-13 14:36 40.83601 -19.39368 36275 ft 451 kts 240°
2026-04-13 14:37 40.79915 -19.46076 36277 ft 451 kts 240°
2026-04-13 14:37 40.76224 -19.52782 36273 ft 452 kts 240°
2026-04-13 14:38 40.72551 -19.59439 36278 ft 452 kts 240°
2026-04-13 14:38 40.68845 -19.66136 36276 ft 452 kts 240°
2026-04-13 14:39 40.65130 -19.72837 36267 ft 453 kts 239°
2026-04-13 14:39 40.61416 -19.79530 36267 ft 453 kts 239°
2026-04-13 14:40 40.57688 -19.86229 36267 ft 453 kts 239°
2026-04-13 14:40 40.53956 -19.92922 36265 ft 454 kts 239°
2026-04-13 14:41 40.50413 -19.99758 36271 ft 448 kts 246°
2026-04-13 14:41 40.47841 -20.07135 36272 ft 443 kts 253°
2026-04-13 14:42 40.45659 -20.14701 36271 ft 444 kts 253°
2026-04-13 14:42 40.43457 -20.22282 36270 ft 445 kts 253°
2026-04-13 14:43 40.41234 -20.29863 36266 ft 445 kts 253°
2026-04-13 14:43 40.39004 -20.37432 36267 ft 445 kts 253°
2026-04-13 14:44 40.36776 -20.44950 36274 ft 445 kts 253°
2026-04-13 14:44 40.34530 -20.52503 36276 ft 444 kts 253°
2026-04-13 14:45 40.32282 -20.60039 36276 ft 443 kts 253°
2026-04-13 14:45 40.30037 -20.67557 36276 ft 443 kts 253°
2026-04-13 14:46 40.27793 -20.75064 36280 ft 442 kts 253°
2026-04-13 14:46 40.25542 -20.82553 36273 ft 442 kts 253°
2026-04-13 14:47 40.23287 -20.90036 36278 ft 442 kts 252°
2026-04-13 14:47 40.21030 -20.97511 36276 ft 442 kts 252°
2026-04-13 14:48 40.18765 -21.04985 36277 ft 442 kts 252°
2026-04-13 14:48 40.16494 -21.12463 36278 ft 442 kts 252°
2026-04-13 14:49 40.14219 -21.19936 36280 ft 443 kts 252°
2026-04-13 14:49 40.11936 -21.27410 36277 ft 443 kts 252°
2026-04-13 14:50 40.09644 -21.34890 36276 ft 443 kts 252°
2026-04-13 14:50 40.07347 -21.42364 36274 ft 443 kts 252°
2026-04-13 14:51 40.05050 -21.49831 36278 ft 443 kts 252°
2026-04-13 14:51 40.02746 -21.57295 36269 ft 444 kts 251°
2026-04-13 14:52 40.00433 -21.64759 36269 ft 444 kts 251°
2026-04-13 14:52 39.98114 -21.72222 36263 ft 444 kts 251°
2026-04-13 14:53 39.95809 -21.79625 36269 ft 444 kts 251°
2026-04-13 14:53 39.93485 -21.87072 36267 ft 444 kts 251°
2026-04-13 14:54 39.91152 -21.94522 36267 ft 444 kts 251°
2026-04-13 14:54 39.88813 -22.01970 36268 ft 444 kts 251°
2026-04-13 14:55 39.86470 -22.09412 36268 ft 444 kts 251°
2026-04-13 14:55 39.84124 -22.16845 36266 ft 444 kts 251°
2026-04-13 14:56 39.81772 -22.24279 36267 ft 444 kts 251°
2026-04-13 14:56 39.79416 -22.31695 36266 ft 444 kts 251°
2026-04-13 14:57 39.77055 -22.39120 36269 ft 444 kts 251°
2026-04-13 14:58 39.73498 -22.50268 36238 ft 445 kts 251°
2026-04-13 14:58 39.71117 -22.57695 36233 ft 445 kts 251°
2026-04-13 14:59 39.68734 -22.65117 36229 ft 445 kts 250°
2026-04-13 14:59 39.66345 -22.72533 36231 ft 445 kts 250°
2026-04-13 15:00 39.63951 -22.79945 36230 ft 445 kts 250°
2026-04-13 15:00 39.61552 -22.87344 36231 ft 445 kts 250°
2026-04-13 15:01 39.59153 -22.94738 36229 ft 444 kts 250°
2026-04-13 15:01 39.56751 -23.02119 36231 ft 444 kts 250°
2026-04-13 15:02 39.54348 -23.09480 36231 ft 443 kts 250°
2026-04-13 15:02 39.51946 -23.16827 36230 ft 443 kts 250°
2026-04-13 15:03 39.49553 -23.24115 36228 ft 442 kts 250°
2026-04-13 15:03 39.47144 -23.31446 36231 ft 442 kts 250°
2026-04-13 15:04 39.44730 -23.38762 36227 ft 442 kts 250°
2026-04-13 15:04 39.42314 -23.46067 36230 ft 442 kts 250°
2026-04-13 15:05 39.39893 -23.53373 36234 ft 442 kts 250°
2026-04-13 15:05 39.37470 -23.60664 36241 ft 441 kts 250°
2026-04-13 15:06 39.35043 -23.67950 36240 ft 441 kts 250°
2026-04-13 15:06 39.32610 -23.75231 36241 ft 441 kts 250°
2026-04-13 15:07 39.30173 -23.82504 36240 ft 441 kts 250°
2026-04-13 15:07 39.27736 -23.89761 36238 ft 441 kts 249°
2026-04-13 15:08 39.25291 -23.97027 36241 ft 441 kts 249°
2026-04-13 15:08 39.22843 -24.04284 36244 ft 441 kts 249°
2026-04-13 15:09 39.20801 -24.10319 36240 ft 441 kts 249°
2026-04-13 15:09 39.18349 -24.17564 36244 ft 440 kts 249°
2026-04-13 15:10 39.15891 -24.24765 36236 ft 437 kts 248°
2026-04-13 15:10 39.13055 -24.33088 36242 ft 436 kts 248°
2026-04-13 15:11 39.11011 -24.39077 36243 ft 436 kts 248°
2026-04-13 15:11 39.08570 -24.46213 36241 ft 435 kts 248°
2026-04-13 15:12 39.06123 -24.53341 36241 ft 435 kts 248°
2026-04-13 15:12 39.03685 -24.60425 36251 ft 436 kts 248°
2026-04-13 15:13 39.01223 -24.67562 36250 ft 437 kts 248°
2026-04-13 15:13 38.98748 -24.74711 36251 ft 438 kts 248°
2026-04-13 15:14 38.96266 -24.81870 36250 ft 439 kts 248°
2026-04-13 15:14 38.93781 -24.89025 36247 ft 439 kts 248°
2026-04-13 15:15 38.91291 -24.96178 36249 ft 438 kts 248°
2026-04-13 15:15 38.88798 -25.03316 36250 ft 438 kts 247°
2026-04-13 15:16 38.86296 -25.10454 36249 ft 437 kts 247°
2026-04-13 15:16 38.83816 -25.17522 36249 ft 437 kts 247°
2026-04-13 15:17 38.81315 -25.24632 36257 ft 437 kts 247°
2026-04-13 15:17 38.78810 -25.31733 36260 ft 437 kts 247°
2026-04-13 15:18 38.76298 -25.38841 36248 ft 438 kts 247°
2026-04-13 15:18 38.73781 -25.45945 36252 ft 438 kts 247°
2026-04-13 15:19 38.71257 -25.53049 36245 ft 438 kts 247°
2026-04-13 15:19 38.68730 -25.60149 36240 ft 438 kts 247°
2026-04-13 15:20 38.66200 -25.67235 36237 ft 438 kts 247°
2026-04-13 15:20 38.63665 -25.74315 36238 ft 437 kts 247°
2026-04-13 15:21 38.61128 -25.81387 36229 ft 437 kts 247°
2026-04-13 15:21 38.58589 -25.88453 36229 ft 437 kts 246°
2026-04-13 15:22 38.56058 -25.95471 36229 ft 438 kts 246°
2026-04-13 15:22 38.53505 -26.02545 36228 ft 438 kts 246°
2026-04-13 15:23 38.50945 -26.09612 36228 ft 439 kts 246°
2026-04-13 15:23 38.48380 -26.16680 36220 ft 439 kts 246°
2026-04-13 15:24 38.45814 -26.23735 36220 ft 438 kts 246°
2026-04-13 15:24 38.43231 -26.30824 36224 ft 438 kts 246°
2026-04-13 15:25 38.40673 -26.37811 36219 ft 437 kts 246°
2026-04-13 15:25 38.38100 -26.44833 36211 ft 437 kts 246°
2026-04-13 15:26 38.35529 -26.51839 36214 ft 436 kts 246°
2026-04-13 15:26 38.32958 -26.58835 36212 ft 436 kts 246°
2026-04-13 15:27 38.30381 -26.65814 36212 ft 435 kts 246°
2026-04-13 15:27 38.27804 -26.72783 36206 ft 435 kts 246°
2026-04-13 15:28 38.25221 -26.79752 36202 ft 435 kts 245°
2026-04-13 15:28 38.22634 -26.86714 36204 ft 435 kts 245°
2026-04-13 15:29 38.20046 -26.93664 36204 ft 435 kts 245°
2026-04-13 15:29 38.17457 -27.00601 36201 ft 434 kts 245°
2026-04-13 15:30 38.14866 -27.07525 36205 ft 434 kts 245°
2026-04-13 15:30 38.12275 -27.14437 36203 ft 433 kts 245°
2026-04-13 15:31 38.09681 -27.21340 36202 ft 432 kts 245°
2026-04-13 15:31 38.07087 -27.28223 36204 ft 432 kts 245°
2026-04-13 15:32 38.04494 -27.35098 36202 ft 432 kts 245°
2026-04-13 15:32 38.01898 -27.41954 36202 ft 431 kts 245°
2026-04-13 15:33 37.99316 -27.48768 36204 ft 431 kts 245°
2026-04-13 15:33 37.96708 -27.55633 36200 ft 433 kts 245°
2026-04-13 15:34 37.92773 -27.65956 36207 ft 435 kts 244°
2026-04-13 15:34 37.90138 -27.72854 36199 ft 435 kts 244°
2026-04-13 15:35 37.87494 -27.79756 36199 ft 436 kts 244°
2026-04-13 15:35 37.84842 -27.86658 36192 ft 436 kts 244°
2026-04-13 15:36 37.82194 -27.93546 36190 ft 435 kts 244°
2026-04-13 15:36 37.79550 -28.00404 36192 ft 433 kts 244°
2026-04-13 15:37 37.76908 -28.07245 36195 ft 432 kts 244°
2026-04-13 15:37 37.74266 -28.14062 36196 ft 432 kts 244°
2026-04-13 15:38 37.71623 -28.20875 36194 ft 432 kts 244°
2026-04-13 15:38 37.68975 -28.27678 36190 ft 432 kts 244°
2026-04-13 15:39 37.66319 -28.34480 36180 ft 432 kts 244°
2026-04-13 15:39 37.63679 -28.41247 36176 ft 433 kts 244°
2026-04-13 15:40 37.61014 -28.48056 36177 ft 433 kts 244°
2026-04-13 15:40 37.58344 -28.54861 36173 ft 433 kts 244°
2026-04-13 15:41 37.55671 -28.61662 36175 ft 433 kts 244°
2026-04-13 15:41 37.52991 -28.68453 36177 ft 433 kts 244°
2026-04-13 15:42 37.50311 -28.75243 36177 ft 433 kts 244°
2026-04-13 15:42 37.47623 -28.82038 36154 ft 434 kts 243°
2026-04-13 15:43 37.44930 -28.88828 36149 ft 434 kts 243°
2026-04-13 15:43 37.42228 -28.95618 36148 ft 434 kts 243°
2026-04-13 15:44 37.39526 -29.02403 36150 ft 434 kts 243°
2026-04-13 15:44 37.36818 -29.09181 36146 ft 433 kts 243°
2026-04-13 15:45 37.34108 -29.15950 36147 ft 433 kts 243°
2026-04-13 15:45 37.31417 -29.22665 36132 ft 433 kts 243°
2026-04-13 15:46 37.28709 -29.29408 36127 ft 432 kts 243°
2026-04-13 15:46 37.26000 -29.36133 36131 ft 431 kts 243°
2026-04-13 15:47 37.23273 -29.42894 36133 ft 432 kts 243°
2026-04-13 15:47 37.20557 -29.49613 36146 ft 431 kts 243°
2026-04-13 15:48 37.17858 -29.56275 36124 ft 431 kts 243°
2026-04-13 15:48 37.15133 -29.62979 36135 ft 432 kts 243°
2026-04-13 15:49 37.12405 -29.69682 36130 ft 432 kts 243°
2026-04-13 15:49 37.09671 -29.76391 36126 ft 433 kts 243°
2026-04-13 15:50 37.06925 -29.83109 36132 ft 433 kts 242°
2026-04-13 15:50 37.04172 -29.89833 36123 ft 434 kts 242°
2026-04-13 15:51 37.01412 -29.96562 36109 ft 435 kts 242°
2026-04-13 15:51 36.98924 -30.03457 36110 ft 435 kts 249°
2026-04-13 15:52 36.96851 -30.10555 36105 ft 435 kts 249°
2026-04-13 15:52 36.94768 -30.17649 36091 ft 434 kts 249°
2026-04-13 15:53 36.92676 -30.24718 36091 ft 433 kts 248°
2026-04-13 15:53 36.90582 -30.31768 36096 ft 433 kts 248°
2026-04-13 15:54 36.88477 -30.38817 36090 ft 433 kts 248°
2026-04-13 15:54 36.86384 -30.45804 36092 ft 433 kts 248°
2026-04-13 15:55 36.84271 -30.52857 36089 ft 434 kts 248°
2026-04-13 15:55 36.82146 -30.59916 36086 ft 435 kts 248°
2026-04-13 15:56 36.80018 -30.66981 36083 ft 435 kts 248°
2026-04-13 15:56 36.77884 -30.74042 36084 ft 435 kts 248°
2026-04-13 15:57 36.75746 -30.81101 36083 ft 435 kts 248°
2026-04-13 15:57 36.73601 -30.88156 36081 ft 435 kts 248°
2026-04-13 15:58 36.71817 -30.94010 36075 ft 435 kts 248°
2026-04-13 15:58 36.69674 -31.01042 36071 ft 434 kts 248°
2026-04-13 15:59 36.67525 -31.08076 36072 ft 434 kts 248°
2026-04-13 15:59 36.65371 -31.15095 36075 ft 433 kts 248°
2026-04-13 16:00 36.63215 -31.22113 36007 ft 435 kts 248°
2026-04-13 16:00 36.61052 -31.29132 35992 ft 434 kts 248°
2026-04-13 16:01 36.58887 -31.36140 35989 ft 434 kts 248°
2026-04-13 16:01 36.56718 -31.43139 35984 ft 433 kts 248°
2026-04-13 16:02 36.54548 -31.50128 35993 ft 433 kts 248°
2026-04-13 16:02 36.52387 -31.57070 35995 ft 434 kts 248°
2026-04-13 16:03 36.50207 -31.64069 35985 ft 434 kts 247°
2026-04-13 16:03 36.48021 -31.71056 35996 ft 435 kts 247°
2026-04-13 16:04 36.45824 -31.78057 35992 ft 435 kts 247°
2026-04-13 16:04 36.43623 -31.85063 35992 ft 436 kts 247°
2026-04-13 16:05 36.41412 -31.92084 35993 ft 437 kts 247°
2026-04-13 16:05 36.39194 -31.99108 35985 ft 438 kts 247°
2026-04-13 16:06 36.36967 -32.06145 35999 ft 438 kts 247°
2026-04-13 16:06 36.34738 -32.13174 35991 ft 438 kts 247°
2026-04-13 16:07 36.32506 -32.20186 35991 ft 437 kts 247°
2026-04-13 16:07 36.30270 -32.27200 35989 ft 437 kts 247°
2026-04-13 16:08 36.28034 -32.34199 35988 ft 437 kts 247°
2026-04-13 16:08 36.25793 -32.41199 35989 ft 436 kts 247°
2026-04-13 16:09 36.23551 -32.48175 35991 ft 436 kts 247°
2026-04-13 16:09 36.21309 -32.55141 35990 ft 435 kts 247°
2026-04-13 16:10 36.19069 -32.62082 35986 ft 434 kts 247°
2026-04-13 16:10 36.16830 -32.69009 35989 ft 433 kts 247°
2026-04-13 16:11 36.14591 -32.75925 35987 ft 432 kts 246°
2026-04-13 16:11 36.12345 -32.82821 36000 ft 432 kts 246°
2026-04-13 16:12 36.10103 -32.89709 35999 ft 431 kts 246°
2026-04-13 16:12 36.07858 -32.96583 36002 ft 431 kts 246°
2026-04-13 16:13 36.05625 -33.03403 36004 ft 431 kts 246°
2026-04-13 16:13 36.03378 -33.10264 36003 ft 431 kts 246°
2026-04-13 16:14 36.01124 -33.17119 35999 ft 430 kts 246°
2026-04-13 16:14 35.98867 -33.23974 35997 ft 431 kts 246°
2026-04-13 16:15 35.96597 -33.30846 36003 ft 433 kts 246°
2026-04-13 16:15 35.94319 -33.37727 36008 ft 434 kts 246°
2026-04-13 16:16 35.92028 -33.44633 36000 ft 435 kts 246°
2026-04-13 16:16 35.89729 -33.51548 35998 ft 436 kts 246°
2026-04-13 16:17 35.87426 -33.58455 36006 ft 435 kts 246°
2026-04-13 16:17 35.85123 -33.65351 35994 ft 434 kts 246°
2026-04-13 16:18 35.82824 -33.72216 36000 ft 433 kts 246°
2026-04-13 16:18 35.80525 -33.79068 35996 ft 432 kts 246°
2026-04-13 16:19 35.78229 -33.85892 36000 ft 431 kts 246°
2026-04-13 16:19 35.75934 -33.92702 35999 ft 430 kts 246°
2026-04-13 16:20 35.73635 -33.99510 36001 ft 430 kts 246°
2026-04-13 16:20 35.71336 -34.06298 36001 ft 430 kts 246°
2026-04-13 16:21 35.69028 -34.13095 36004 ft 430 kts 246°
2026-04-13 16:21 35.66733 -34.19844 36013 ft 431 kts 246°
2026-04-13 16:22 35.64413 -34.26649 36012 ft 431 kts 246°
2026-04-13 16:23 35.60926 -34.36853 36006 ft 432 kts 245°
2026-04-13 16:23 35.58592 -34.43662 36011 ft 433 kts 246°
2026-04-13 16:24 35.56251 -34.50478 36009 ft 433 kts 245°
2026-04-13 16:24 35.53902 -34.57301 36008 ft 434 kts 245°
2026-04-13 16:25 35.51548 -34.64121 36011 ft 434 kts 245°
2026-04-13 16:25 35.49187 -34.70941 36008 ft 434 kts 245°
2026-04-13 16:26 35.46825 -34.77757 36008 ft 434 kts 245°
2026-04-13 16:26 35.44461 -34.84565 36009 ft 434 kts 245°
2026-04-13 16:27 35.42092 -34.91368 36010 ft 434 kts 245°
2026-04-13 16:27 35.39737 -34.98118 36009 ft 434 kts 245°
2026-04-13 16:28 35.37363 -35.04914 36010 ft 433 kts 245°
2026-04-13 16:28 35.34985 -35.11697 36008 ft 433 kts 245°
2026-04-13 16:29 35.32607 -35.18469 36010 ft 433 kts 245°
2026-04-13 16:29 35.30223 -35.25240 36016 ft 433 kts 245°
2026-04-13 16:30 35.27846 -35.32007 36051 ft 432 kts 246°
2026-04-13 16:30 35.25494 -35.38780 36027 ft 432 kts 245°
2026-04-13 16:31 35.23083 -35.45518 36019 ft 433 kts 245°
2026-04-13 16:31 35.20669 -35.52262 36019 ft 432 kts 245°
2026-04-13 16:32 35.18262 -35.59003 36018 ft 433 kts 245°
2026-04-13 16:32 35.15857 -35.65744 36018 ft 433 kts 245°
2026-04-13 16:33 35.13449 -35.72484 36020 ft 433 kts 245°
2026-04-13 16:33 35.11036 -35.79220 36019 ft 433 kts 245°
2026-04-13 16:34 35.08629 -35.85938 36012 ft 434 kts 245°
2026-04-13 16:34 35.06196 -35.92703 36009 ft 434 kts 245°
2026-04-13 16:35 35.03774 -35.99430 36011 ft 434 kts 245°
2026-04-13 16:35 35.01334 -36.06174 36013 ft 434 kts 245°
2026-04-13 16:36 34.98893 -36.12915 36010 ft 434 kts 245°
2026-04-13 16:36 34.96456 -36.19640 36009 ft 433 kts 245°
2026-04-13 16:37 34.94027 -36.26319 36010 ft 434 kts 245°
2026-04-13 16:37 34.91581 -36.33038 36008 ft 433 kts 245°
2026-04-13 16:38 34.89134 -36.39744 36008 ft 434 kts 245°
2026-04-13 16:38 34.86677 -36.46454 36019 ft 434 kts 245°
2026-04-13 16:39 34.84218 -36.53162 36018 ft 434 kts 245°
2026-04-13 16:39 34.81756 -36.59872 36020 ft 434 kts 245°
2026-04-13 16:40 34.79290 -36.66575 36019 ft 434 kts 245°
2026-04-13 16:40 34.76816 -36.73283 36018 ft 434 kts 245°
2026-04-13 16:41 34.74337 -36.79988 36018 ft 434 kts 245°
2026-04-13 16:41 34.71857 -36.86683 36018 ft 434 kts 244°
2026-04-13 16:42 34.69371 -36.93376 36020 ft 434 kts 244°
2026-04-13 16:42 34.66889 -37.00057 36018 ft 434 kts 244°
2026-04-13 16:43 34.64402 -37.06730 36017 ft 433 kts 244°
2026-04-13 16:43 34.61916 -37.13399 36018 ft 433 kts 244°
2026-04-13 16:44 34.59424 -37.20047 36017 ft 432 kts 244°
2026-04-13 16:44 34.57353 -37.25569 36018 ft 432 kts 244°
2026-04-13 16:45 34.54858 -37.32211 36019 ft 432 kts 244°
2026-04-13 16:45 34.52361 -37.38849 36020 ft 433 kts 244°
2026-04-13 16:46 34.49860 -37.45485 36020 ft 433 kts 244°
2026-04-13 16:46 34.47349 -37.52127 36019 ft 434 kts 244°
2026-04-13 16:47 34.44833 -37.58770 36021 ft 434 kts 244°
2026-04-13 16:47 34.42308 -37.65427 36031 ft 435 kts 244°
2026-04-13 16:48 34.39776 -37.72085 36028 ft 435 kts 244°
2026-04-13 16:48 34.37239 -37.78734 36023 ft 436 kts 244°
2026-04-13 16:49 34.34713 -37.85353 36029 ft 436 kts 244°
2026-04-13 16:49 34.32171 -37.92001 36028 ft 436 kts 244°
2026-04-13 16:50 34.29621 -37.98659 36028 ft 436 kts 244°
2026-04-13 16:50 34.27066 -38.05313 36027 ft 436 kts 244°
2026-04-13 16:51 34.24507 -38.11957 36029 ft 436 kts 244°
2026-04-13 16:51 34.21947 -38.18598 36028 ft 436 kts 244°
2026-04-13 16:52 34.19382 -38.25235 36027 ft 435 kts 244°
2026-04-13 16:52 34.16817 -38.31859 36029 ft 435 kts 244°
2026-04-13 16:53 34.14252 -38.38472 36026 ft 435 kts 244°
2026-04-13 16:53 34.11683 -38.45076 36030 ft 434 kts 244°
2026-04-13 16:54 34.09117 -38.51671 36027 ft 434 kts 244°
2026-04-13 16:54 34.06550 -38.58248 36026 ft 433 kts 244°
2026-04-13 16:55 34.03984 -38.64810 36019 ft 432 kts 244°
2026-04-13 16:55 34.01416 -38.71360 36005 ft 432 kts 244°
2026-04-13 16:56 33.98851 -38.77902 35988 ft 432 kts 244°
2026-04-13 16:56 33.96278 -38.84442 36007 ft 433 kts 244°
2026-04-13 16:57 33.93694 -38.90997 36005 ft 434 kts 244°
2026-04-13 16:57 33.91094 -38.97579 36002 ft 436 kts 244°
2026-04-13 16:58 33.88486 -39.04172 36000 ft 437 kts 244°
2026-04-13 16:58 33.85872 -39.10767 36003 ft 437 kts 244°
2026-04-13 16:59 33.83268 -39.17321 35997 ft 437 kts 244°
2026-04-13 16:59 33.80648 -39.23907 36002 ft 436 kts 244°
2026-04-13 17:00 33.78031 -39.30468 35996 ft 434 kts 244°
2026-04-13 17:00 33.75420 -39.37006 36003 ft 433 kts 244°
2026-04-13 17:01 33.72817 -39.43514 36008 ft 432 kts 244°
2026-04-13 17:01 33.70214 -39.50000 36010 ft 431 kts 244°
2026-04-13 17:02 33.67613 -39.56472 36009 ft 430 kts 244°
2026-04-13 17:02 33.65016 -39.62924 36008 ft 429 kts 244°
2026-04-13 17:03 33.62420 -39.69362 36008 ft 428 kts 244°
2026-04-13 17:03 33.59819 -39.75796 36011 ft 428 kts 244°
2026-04-13 17:04 33.57217 -39.82226 36010 ft 429 kts 244°
2026-04-13 17:04 33.54612 -39.88655 36009 ft 429 kts 244°
2026-04-13 17:05 33.52000 -39.95082 36008 ft 429 kts 244°
2026-04-13 17:05 33.49488 -40.01569 36013 ft 430 kts 249°
2026-04-13 17:06 33.47482 -40.08311 36014 ft 430 kts 249°
2026-04-13 17:06 33.45479 -40.15061 36010 ft 430 kts 249°
2026-04-13 17:07 33.43461 -40.21808 36009 ft 430 kts 249°
2026-04-13 17:07 33.41433 -40.28550 36008 ft 430 kts 249°
2026-04-13 17:08 33.39406 -40.35283 36013 ft 430 kts 249°
2026-04-13 17:08 33.37373 -40.42018 36011 ft 431 kts 249°
2026-04-13 17:09 33.35332 -40.48754 36005 ft 431 kts 249°
2026-04-13 17:09 33.33286 -40.55497 35993 ft 431 kts 249°
2026-04-13 17:10 33.31233 -40.62247 35989 ft 432 kts 249°
2026-04-13 17:10 33.29179 -40.68990 36001 ft 432 kts 249°
2026-04-13 17:11 33.27117 -40.75733 35998 ft 431 kts 249°
2026-04-13 17:11 33.25070 -40.82415 35998 ft 431 kts 249°
2026-04-13 17:12 33.23007 -40.89140 36001 ft 431 kts 249°
2026-04-13 17:12 33.20939 -40.95862 36003 ft 431 kts 249°
2026-04-13 17:13 33.18869 -41.02578 36003 ft 431 kts 249°
2026-04-13 17:13 33.16793 -41.09291 35999 ft 431 kts 249°
2026-04-13 17:14 33.14716 -41.15995 36000 ft 431 kts 249°
2026-04-13 17:14 33.12637 -41.22696 36000 ft 431 kts 249°
2026-04-13 17:15 33.10555 -41.29392 36000 ft 431 kts 249°
2026-04-13 17:15 33.08465 -41.36095 35999 ft 431 kts 249°
2026-04-13 17:16 33.06377 -41.42782 36001 ft 431 kts 249°
2026-04-13 17:16 33.04281 -41.49475 35998 ft 431 kts 249°
2026-04-13 17:17 33.02181 -41.56155 36004 ft 427 kts 249°
2026-04-13 17:17 33.00040 -41.62751 36009 ft 427 kts 249°
2026-04-13 17:18 32.97982 -41.69380 36005 ft 431 kts 250°
2026-04-13 17:18 32.95894 -41.76091 36005 ft 433 kts 249°
2026-04-13 17:19 32.93774 -41.82821 36010 ft 435 kts 249°
2026-04-13 17:19 32.91635 -41.89563 35999 ft 436 kts 249°
2026-04-13 17:20 32.89491 -41.96308 36001 ft 435 kts 249°
2026-04-13 17:20 32.87350 -42.03030 36002 ft 434 kts 249°
2026-04-13 17:21 32.85215 -42.09715 35994 ft 431 kts 249°
2026-04-13 17:21 32.83085 -42.16375 35994 ft 430 kts 249°
2026-04-13 17:22 32.80958 -42.23009 36003 ft 429 kts 249°
2026-04-13 17:22 32.78828 -42.29632 36004 ft 428 kts 249°
2026-04-13 17:23 32.76701 -42.36244 36004 ft 429 kts 249°
2026-04-13 17:23 32.74566 -42.42861 35999 ft 429 kts 249°
2026-04-13 17:24 32.72425 -42.49485 35999 ft 430 kts 249°
2026-04-13 17:24 32.70278 -42.56114 35998 ft 430 kts 249°
2026-04-13 17:25 32.68122 -42.62748 36000 ft 431 kts 249°
2026-04-13 17:25 32.65963 -42.69381 36000 ft 431 kts 249°
2026-04-13 17:26 32.63801 -42.76014 36005 ft 431 kts 249°
2026-04-13 17:26 32.61648 -42.82601 36010 ft 431 kts 249°
2026-04-13 17:27 32.58395 -42.92529 36009 ft 430 kts 249°
2026-04-13 17:27 32.56226 -42.99137 36006 ft 430 kts 249°
2026-04-13 17:28 32.54058 -43.05731 36007 ft 429 kts 249°
2026-04-13 17:28 32.51886 -43.12313 36010 ft 428 kts 249°
2026-04-13 17:29 32.49714 -43.18888 36007 ft 428 kts 249°
2026-04-13 17:29 32.47543 -43.25438 36013 ft 427 kts 249°
2026-04-13 17:30 32.45739 -43.30876 36007 ft 427 kts 249°
2026-04-13 17:30 32.43195 -43.38529 36010 ft 427 kts 249°
2026-04-13 17:31 32.41384 -43.43968 36010 ft 428 kts 249°
2026-04-13 17:31 32.39198 -43.50512 36002 ft 428 kts 249°
2026-04-13 17:32 32.37007 -43.57060 36010 ft 428 kts 249°
2026-04-13 17:32 32.34815 -43.63605 36014 ft 428 kts 249°
2026-04-13 17:33 32.32613 -43.70151 36010 ft 428 kts 249°
2026-04-13 17:33 32.30410 -43.76704 36011 ft 430 kts 249°
2026-04-13 17:34 32.27092 -43.86565 36010 ft 431 kts 249°
2026-04-13 17:35 32.24865 -43.93141 36009 ft 431 kts 249°
2026-04-13 17:35 32.22639 -43.99711 36012 ft 431 kts 249°
2026-04-13 17:36 32.20405 -44.06285 36015 ft 431 kts 249°
2026-04-13 17:36 32.18171 -44.12848 36005 ft 431 kts 249°
2026-04-13 17:37 32.15953 -44.19353 36008 ft 430 kts 249°
2026-04-13 17:37 32.13720 -44.25893 36010 ft 429 kts 249°
2026-04-13 17:38 32.11484 -44.32419 36008 ft 428 kts 249°
2026-04-13 17:38 32.09249 -44.38931 36006 ft 428 kts 249°
2026-04-13 17:39 32.07014 -44.45441 36008 ft 428 kts 249°
2026-04-13 17:39 32.04776 -44.51945 36008 ft 428 kts 249°
2026-04-13 17:40 32.02533 -44.58445 36013 ft 428 kts 249°
2026-04-13 17:40 32.00292 -44.64928 36008 ft 427 kts 249°
2026-04-13 17:41 31.98046 -44.71413 36012 ft 428 kts 249°
2026-04-13 17:41 31.95791 -44.77907 36023 ft 429 kts 249°
2026-04-13 17:42 31.93523 -44.84433 36021 ft 431 kts 249°
2026-04-13 17:42 31.91244 -44.90977 36021 ft 433 kts 249°
2026-04-13 17:43 31.88955 -44.97536 36019 ft 434 kts 249°
2026-04-13 17:43 31.86659 -45.04098 36019 ft 434 kts 249°
2026-04-13 17:44 31.84359 -45.10659 36017 ft 434 kts 249°
2026-04-13 17:44 31.82059 -45.17205 36018 ft 433 kts 249°
2026-04-13 17:45 31.79777 -45.23691 36018 ft 432 kts 249°
2026-04-13 17:45 31.77476 -45.30219 36017 ft 431 kts 249°
2026-04-13 17:46 31.75183 -45.36716 36016 ft 430 kts 249°
2026-04-13 17:46 31.72886 -45.43208 36019 ft 430 kts 249°
2026-04-13 17:47 31.70589 -45.49684 36019 ft 430 kts 249°
2026-04-13 17:47 31.68289 -45.56155 36018 ft 429 kts 249°
2026-04-13 17:48 31.65990 -45.62618 36018 ft 429 kts 249°
2026-04-13 17:48 31.63687 -45.69076 36018 ft 429 kts 248°
2026-04-13 17:49 31.61380 -45.75533 36024 ft 430 kts 248°
2026-04-13 17:49 31.59064 -45.82005 36014 ft 430 kts 248°
2026-04-13 17:50 31.56745 -45.88468 36020 ft 430 kts 248°
2026-04-13 17:50 31.54422 -45.94929 36018 ft 430 kts 248°
2026-04-13 17:51 31.52095 -46.01395 36018 ft 430 kts 248°
2026-04-13 17:51 31.49766 -46.07853 36019 ft 430 kts 248°
2026-04-13 17:52 31.47437 -46.14300 36016 ft 429 kts 248°
2026-04-13 17:52 31.45108 -46.20733 36019 ft 428 kts 248°
2026-04-13 17:53 31.43173 -46.26068 36017 ft 428 kts 248°
2026-04-13 17:53 31.40445 -46.33573 36019 ft 429 kts 248°
2026-04-13 17:54 31.38108 -46.39989 36019 ft 429 kts 248°
2026-04-13 17:54 31.35768 -46.46406 36018 ft 429 kts 248°
2026-04-13 17:55 31.33436 -46.52791 36019 ft 430 kts 248°
2026-04-13 17:55 31.31081 -46.59220 36019 ft 430 kts 248°
2026-04-13 17:56 31.28724 -46.65649 36022 ft 431 kts 248°
2026-04-13 17:56 31.26358 -46.72087 36019 ft 431 kts 248°
2026-04-13 17:57 31.23988 -46.78521 36020 ft 431 kts 248°
2026-04-13 17:57 31.21618 -46.84946 36016 ft 430 kts 248°
2026-04-13 17:58 31.19245 -46.91365 36019 ft 430 kts 248°
2026-04-13 17:58 31.16875 -46.97770 36018 ft 429 kts 248°
2026-04-13 17:59 31.14503 -47.04161 36017 ft 429 kts 248°
2026-04-13 17:59 31.12133 -47.10537 36018 ft 428 kts 248°
2026-04-13 18:00 31.09763 -47.16906 36017 ft 428 kts 248°
2026-04-13 18:00 31.07390 -47.23271 36018 ft 427 kts 248°
2026-04-13 18:01 31.05015 -47.29626 36020 ft 428 kts 248°
2026-04-13 18:01 31.02636 -47.35985 36047 ft 427 kts 248°
2026-04-13 18:02 31.00258 -47.42322 36115 ft 425 kts 248°
2026-04-13 18:02 30.97900 -47.48602 36129 ft 426 kts 248°
2026-04-13 18:03 30.95516 -47.54937 36130 ft 428 kts 248°
2026-04-13 18:03 30.93118 -47.61297 36129 ft 429 kts 248°
2026-04-13 18:04 30.90710 -47.67675 36135 ft 431 kts 248°
2026-04-13 18:04 30.88295 -47.74059 36140 ft 431 kts 248°
2026-04-13 18:05 30.85874 -47.80450 36127 ft 432 kts 248°
2026-04-13 18:05 30.83450 -47.86836 36126 ft 431 kts 248°
2026-04-13 18:06 30.81021 -47.93215 36144 ft 431 kts 248°
2026-04-13 18:06 30.78592 -47.99589 36141 ft 431 kts 248°
2026-04-13 18:07 30.76166 -48.05945 36128 ft 430 kts 248°
2026-04-13 18:07 30.73740 -48.12299 36146 ft 429 kts 247°
2026-04-13 18:08 30.71312 -48.18627 36136 ft 428 kts 247°
2026-04-13 18:08 30.68888 -48.24943 36132 ft 427 kts 247°
2026-04-13 18:09 30.66468 -48.31241 36128 ft 427 kts 247°
2026-04-13 18:09 30.64040 -48.37541 36146 ft 427 kts 248°
2026-04-13 18:10 30.61626 -48.43798 36135 ft 427 kts 248°
2026-04-13 18:10 30.59197 -48.50080 36144 ft 426 kts 248°
2026-04-13 18:11 30.56771 -48.56348 36149 ft 426 kts 248°
2026-04-13 18:11 30.54341 -48.62613 36146 ft 426 kts 248°
2026-04-13 18:12 30.51909 -48.68872 36147 ft 425 kts 248°
2026-04-13 18:12 30.49475 -48.75122 36150 ft 425 kts 248°
2026-04-13 18:13 30.47044 -48.81363 36145 ft 425 kts 248°
2026-04-13 18:13 30.44610 -48.87596 36149 ft 424 kts 248°
2026-04-13 18:14 30.42170 -48.93832 36148 ft 424 kts 247°
2026-04-13 18:14 30.39733 -49.00052 36147 ft 424 kts 247°
2026-04-13 18:15 30.37290 -49.06276 36148 ft 424 kts 247°
2026-04-13 18:15 30.34845 -49.12494 36154 ft 424 kts 247°
2026-04-13 18:16 30.32400 -49.18703 36157 ft 424 kts 247°
2026-04-13 18:16 30.29948 -49.24916 36157 ft 424 kts 247°
2026-04-13 18:17 30.27498 -49.31117 36154 ft 424 kts 247°
2026-04-13 18:17 30.25459 -49.36272 36155 ft 424 kts 247°
2026-04-13 18:18 30.23003 -49.42465 36160 ft 424 kts 247°
2026-04-13 18:18 30.20140 -49.49674 36158 ft 425 kts 247°
2026-04-13 18:19 30.17673 -49.55871 36154 ft 425 kts 247°
2026-04-13 18:19 30.15603 -49.61068 36145 ft 425 kts 247°
2026-04-13 18:20 30.13125 -49.67277 36147 ft 426 kts 247°
2026-04-13 18:20 30.10640 -49.73495 36150 ft 426 kts 247°
2026-04-13 18:21 30.08154 -49.79705 36152 ft 426 kts 247°
2026-04-13 18:21 30.05660 -49.85920 36159 ft 427 kts 247°
2026-04-13 18:22 30.03180 -49.92094 36154 ft 427 kts 247°
2026-04-13 18:22 30.00524 -49.98278 36152 ft 429 kts 241°
2026-04-13 18:23 29.97127 -50.03895 36151 ft 432 kts 233°
2026-04-13 18:23 29.93186 -50.09129 36158 ft 433 kts 232°
2026-04-13 18:24 29.89206 -50.14346 36157 ft 433 kts 232°
2026-04-13 18:24 29.85242 -50.19559 36158 ft 432 kts 232°
2026-04-13 18:25 29.81287 -50.24779 36157 ft 432 kts 232°
2026-04-13 18:25 29.77330 -50.30001 36157 ft 432 kts 232°
2026-04-13 18:26 29.73380 -50.35210 36156 ft 432 kts 232°
2026-04-13 18:26 29.69428 -50.40415 36157 ft 432 kts 232°
2026-04-13 18:27 29.65472 -50.45621 36157 ft 432 kts 232°
2026-04-13 18:27 29.61511 -50.50821 36160 ft 432 kts 232°
2026-04-13 18:28 29.57551 -50.56015 36164 ft 432 kts 232°
2026-04-13 18:28 29.53583 -50.61211 36167 ft 433 kts 232°
2026-04-13 18:29 29.49611 -50.66409 36166 ft 433 kts 232°
2026-04-13 18:29 29.45634 -50.71604 36164 ft 434 kts 232°
2026-04-13 18:30 29.41650 -50.76799 36165 ft 434 kts 232°
2026-04-13 18:30 29.37668 -50.81990 36166 ft 433 kts 232°
2026-04-13 18:31 29.33679 -50.87181 36166 ft 434 kts 232°
2026-04-13 18:31 29.29688 -50.92370 36167 ft 434 kts 232°
2026-04-13 18:32 29.25714 -50.97529 36168 ft 435 kts 232°
2026-04-13 18:32 29.21713 -51.02718 36166 ft 435 kts 232°
2026-04-13 18:33 29.17711 -51.07900 36166 ft 435 kts 232°
2026-04-13 18:33 29.13708 -51.13079 36165 ft 434 kts 232°
2026-04-13 18:34 29.07698 -51.20833 36166 ft 434 kts 232°
2026-04-13 18:34 29.03693 -51.25995 36163 ft 434 kts 232°
2026-04-13 18:35 28.99690 -51.31150 36163 ft 434 kts 232°
2026-04-13 18:35 28.95679 -51.36307 36166 ft 434 kts 231°
2026-04-13 18:36 28.91667 -51.41461 36168 ft 434 kts 231°
2026-04-13 18:36 28.87647 -51.46622 36164 ft 435 kts 231°
2026-04-13 18:37 28.83618 -51.51781 36168 ft 435 kts 231°
2026-04-13 18:37 28.79580 -51.56942 36166 ft 436 kts 231°
2026-04-13 18:38 28.75543 -51.62100 36171 ft 436 kts 232°
2026-04-13 18:38 28.71506 -51.67253 36177 ft 436 kts 232°
2026-04-13 18:39 28.67464 -51.72405 36177 ft 436 kts 231°
2026-04-13 18:39 28.63415 -51.77559 36177 ft 437 kts 232°
2026-04-13 18:40 28.59365 -51.82709 36169 ft 437 kts 232°
2026-04-13 18:40 28.55312 -51.87854 36163 ft 437 kts 231°
2026-04-13 18:41 28.51255 -51.92999 36167 ft 437 kts 231°
2026-04-13 18:41 28.47196 -51.98141 36168 ft 437 kts 231°
2026-04-13 18:42 28.43132 -52.03277 36165 ft 437 kts 231°
2026-04-13 18:42 28.39067 -52.08415 36168 ft 437 kts 231°
2026-04-13 18:43 28.35028 -52.13512 36166 ft 437 kts 231°
2026-04-13 18:43 28.30962 -52.18635 36166 ft 437 kts 231°
2026-04-13 18:44 28.26891 -52.23761 36167 ft 437 kts 231°
2026-04-13 18:44 28.22814 -52.28888 36167 ft 438 kts 231°
2026-04-13 18:45 28.18732 -52.34012 36163 ft 438 kts 231°
2026-04-13 18:45 28.14653 -52.39128 36168 ft 438 kts 231°
2026-04-13 18:46 28.10568 -52.44244 36164 ft 437 kts 231°
2026-04-13 18:46 28.06487 -52.49349 36166 ft 437 kts 231°
2026-04-13 18:47 28.02399 -52.54458 36168 ft 437 kts 231°
2026-04-13 18:47 27.98320 -52.59548 36164 ft 437 kts 231°
2026-04-13 18:48 27.94233 -52.64642 36167 ft 438 kts 231°
2026-04-13 18:48 27.90141 -52.69736 36165 ft 438 kts 231°
2026-04-13 18:49 27.86042 -52.74836 36168 ft 438 kts 231°
2026-04-13 18:49 27.81943 -52.79925 36179 ft 438 kts 231°
2026-04-13 18:50 27.77846 -52.85008 36190 ft 438 kts 231°
2026-04-13 18:50 27.73740 -52.90095 36182 ft 438 kts 231°
2026-04-13 18:51 27.69636 -52.95174 36187 ft 438 kts 231°
2026-04-13 18:51 27.65523 -53.00255 36183 ft 438 kts 231°
2026-04-13 18:52 27.61443 -53.05290 36187 ft 438 kts 231°
2026-04-13 18:52 27.57334 -53.10358 36189 ft 438 kts 231°
2026-04-13 18:53 27.53221 -53.15425 36186 ft 438 kts 231°
2026-04-13 18:53 27.49109 -53.20483 36182 ft 438 kts 231°
2026-04-13 18:54 27.44994 -53.25537 36188 ft 437 kts 231°
2026-04-13 18:54 27.40884 -53.30582 36185 ft 437 kts 231°
2026-04-13 18:55 27.36773 -53.35620 36183 ft 437 kts 231°
2026-04-13 18:55 27.32664 -53.40651 36185 ft 437 kts 231°
2026-04-13 18:56 27.28553 -53.45680 36183 ft 437 kts 231°
2026-04-13 18:56 27.24438 -53.50706 36187 ft 437 kts 231°
2026-04-13 18:57 27.20326 -53.55724 36182 ft 436 kts 231°
2026-04-13 18:57 27.16208 -53.60742 36183 ft 437 kts 231°
2026-04-13 18:58 27.12087 -53.65754 36181 ft 437 kts 231°
2026-04-13 18:58 27.07961 -53.70770 36189 ft 438 kts 231°
2026-04-13 18:59 27.03854 -53.75756 36174 ft 438 kts 231°
2026-04-13 18:59 26.99712 -53.80780 36165 ft 438 kts 231°
2026-04-13 19:00 26.95575 -53.85792 36166 ft 438 kts 231°
2026-04-13 19:00 26.91435 -53.90796 36167 ft 438 kts 231°
2026-04-13 19:01 26.87295 -53.95802 36167 ft 438 kts 231°
2026-04-13 19:01 26.83149 -54.00810 36167 ft 438 kts 231°
2026-04-13 19:02 26.79002 -54.05809 36166 ft 438 kts 231°
2026-04-13 19:02 26.74855 -54.10803 36165 ft 438 kts 231°
2026-04-13 19:03 26.70711 -54.15789 36165 ft 438 kts 231°
2026-04-13 19:03 26.66563 -54.20772 36168 ft 437 kts 230°
2026-04-13 19:04 26.62423 -54.25744 36165 ft 437 kts 230°
2026-04-13 19:04 26.58306 -54.30677 36166 ft 437 kts 230°
2026-04-13 19:05 26.54161 -54.35639 36167 ft 437 kts 230°
2026-04-13 19:05 26.50008 -54.40608 36165 ft 438 kts 230°
2026-04-13 19:06 26.46526 -54.44771 36167 ft 438 kts 230°
2026-04-13 19:06 26.42365 -54.49739 36168 ft 438 kts 230°
2026-04-13 19:07 26.38227 -54.54673 36170 ft 439 kts 230°
2026-04-13 19:07 26.34055 -54.59640 36166 ft 439 kts 230°
2026-04-13 19:08 26.29879 -54.64607 36158 ft 439 kts 230°
2026-04-13 19:08 26.25710 -54.69563 36156 ft 439 kts 230°
2026-04-13 19:09 26.21534 -54.74519 36158 ft 438 kts 230°
2026-04-13 19:09 26.17361 -54.79466 36158 ft 438 kts 230°
2026-04-13 19:10 26.13187 -54.84413 36156 ft 438 kts 230°
2026-04-13 19:10 26.09011 -54.89353 36159 ft 438 kts 230°
2026-04-13 19:11 26.04838 -54.94288 36157 ft 438 kts 230°
2026-04-13 19:11 26.00659 -54.99220 36156 ft 438 kts 230°
2026-04-13 19:12 25.96312 -55.03968 36160 ft 439 kts 227°
2026-04-13 19:12 25.91866 -55.08632 36155 ft 439 kts 227°
2026-04-13 19:13 25.87420 -55.13286 36157 ft 440 kts 227°
2026-04-13 19:13 25.83006 -55.17925 36147 ft 440 kts 227°
2026-04-13 19:14 25.78567 -55.22595 36148 ft 439 kts 227°
2026-04-13 19:14 25.74131 -55.27257 36146 ft 439 kts 226°
2026-04-13 19:15 25.69698 -55.31914 36147 ft 439 kts 227°
2026-04-13 19:15 25.65263 -55.36571 36150 ft 439 kts 227°
2026-04-13 19:16 25.60830 -55.41219 36147 ft 439 kts 226°
2026-04-13 19:16 25.56396 -55.45860 36145 ft 438 kts 226°
2026-04-13 19:17 25.51965 -55.50492 36146 ft 437 kts 226°
2026-04-13 19:17 25.47542 -55.55113 36142 ft 437 kts 226°
2026-04-13 19:18 25.43149 -55.59698 36140 ft 437 kts 226°
2026-04-13 19:18 25.38699 -55.64339 36137 ft 437 kts 226°
2026-04-13 19:19 25.34307 -55.68912 36140 ft 437 kts 226°
2026-04-13 19:19 25.29879 -55.73518 36132 ft 437 kts 226°
2026-04-13 19:20 25.25445 -55.78124 36130 ft 437 kts 226°
2026-04-13 19:20 25.21017 -55.82725 36143 ft 437 kts 226°
2026-04-13 19:21 25.16582 -55.87325 36147 ft 437 kts 226°
2026-04-13 19:21 25.12143 -55.91921 36132 ft 438 kts 226°
2026-04-13 19:22 25.07695 -55.96524 36128 ft 438 kts 226°
2026-04-13 19:22 25.03249 -56.01118 36133 ft 438 kts 226°
2026-04-13 19:23 24.98836 -56.05678 36134 ft 437 kts 226°
2026-04-13 19:23 24.94404 -56.10248 36123 ft 436 kts 226°
2026-04-13 19:24 24.89977 -56.14812 36122 ft 435 kts 226°
2026-04-13 19:24 24.85560 -56.19357 36127 ft 434 kts 226°
2026-04-13 19:25 24.81146 -56.23899 36146 ft 434 kts 226°
2026-04-13 19:25 24.76735 -56.28432 36131 ft 434 kts 226°
2026-04-13 19:26 24.72315 -56.32967 36126 ft 434 kts 226°
2026-04-13 19:26 24.67895 -56.37499 36124 ft 435 kts 226°
2026-04-13 19:27 24.63471 -56.42033 36130 ft 435 kts 226°
2026-04-13 19:27 24.59045 -56.46563 36134 ft 435 kts 226°
2026-04-13 19:28 24.54614 -56.51091 36135 ft 435 kts 226°
2026-04-13 19:28 24.50181 -56.55617 36125 ft 435 kts 226°
2026-04-13 19:29 24.45749 -56.60138 36133 ft 435 kts 226°
2026-04-13 19:29 24.41319 -56.64654 36130 ft 434 kts 226°
2026-04-13 19:30 24.36887 -56.69167 36146 ft 434 kts 226°
2026-04-13 19:30 24.32453 -56.73673 36130 ft 434 kts 226°
2026-04-13 19:31 24.28022 -56.78175 36134 ft 435 kts 226°
2026-04-13 19:31 24.23587 -56.82678 36130 ft 435 kts 226°
2026-04-13 19:32 24.19148 -56.87181 36132 ft 435 kts 226°
2026-04-13 19:32 24.14704 -56.91683 36135 ft 435 kts 226°
2026-04-13 19:33 24.10262 -56.96177 36135 ft 435 kts 226°
2026-04-13 19:34 24.03617 -57.02894 36127 ft 436 kts 226°
2026-04-13 19:34 23.99167 -57.07385 36126 ft 436 kts 226°
2026-04-13 19:35 23.94711 -57.11879 36134 ft 435 kts 226°
2026-04-13 19:35 23.90261 -57.16363 36131 ft 435 kts 226°
2026-04-13 19:36 23.85810 -57.20844 36119 ft 435 kts 226°
2026-04-13 19:36 23.81359 -57.25319 36118 ft 434 kts 226°
2026-04-13 19:37 23.76910 -57.29788 36124 ft 434 kts 226°
2026-04-13 19:37 23.72462 -57.34255 36120 ft 434 kts 226°
2026-04-13 19:38 23.68011 -57.38717 36120 ft 434 kts 226°
2026-04-13 19:38 23.63561 -57.43175 36118 ft 434 kts 226°
2026-04-13 19:39 23.59113 -57.47625 36125 ft 434 kts 226°
2026-04-13 19:39 23.54659 -57.52075 36125 ft 435 kts 226°
2026-04-13 19:40 23.50195 -57.56535 36118 ft 435 kts 226°
2026-04-13 19:40 23.45757 -57.60966 36109 ft 436 kts 226°
2026-04-13 19:41 23.41281 -57.65427 36114 ft 436 kts 226°
2026-04-13 19:41 23.36800 -57.69887 36114 ft 437 kts 226°
2026-04-13 19:42 23.30076 -57.76579 36109 ft 437 kts 226°
2026-04-13 19:42 23.25597 -57.81028 36110 ft 436 kts 226°
2026-04-13 19:43 23.21119 -57.85471 36110 ft 435 kts 226°
2026-04-13 19:43 23.16651 -57.89903 36107 ft 435 kts 226°
2026-04-13 19:44 23.12175 -57.94338 36105 ft 435 kts 226°
2026-04-13 19:44 23.07700 -57.98767 36098 ft 436 kts 226°
2026-04-13 19:45 23.03222 -58.03198 36100 ft 435 kts 226°
2026-04-13 19:45 22.98746 -58.07618 36105 ft 435 kts 226°
2026-04-13 19:46 22.94266 -58.12037 36100 ft 435 kts 226°
2026-04-13 19:46 22.89794 -58.16449 36102 ft 435 kts 226°
2026-04-13 19:47 22.85317 -58.20861 36094 ft 435 kts 226°
2026-04-13 19:47 22.80837 -58.25269 36093 ft 435 kts 226°
2026-04-13 19:48 22.76351 -58.29680 36091 ft 435 kts 226°
2026-04-13 19:48 22.71865 -58.34084 36090 ft 435 kts 226°
2026-04-13 19:49 22.67411 -58.38457 36093 ft 435 kts 226°
2026-04-13 19:49 22.62929 -58.42855 36093 ft 435 kts 226°
2026-04-13 19:50 22.58434 -58.47257 36092 ft 435 kts 226°
2026-04-13 19:50 22.53949 -58.51647 36092 ft 435 kts 226°
2026-04-13 19:51 22.49460 -58.56039 36085 ft 435 kts 226°
2026-04-13 19:51 22.44975 -58.60421 36084 ft 434 kts 226°
2026-04-13 19:52 22.40486 -58.64803 36080 ft 435 kts 226°
2026-04-13 19:52 22.35990 -58.69187 36082 ft 435 kts 226°
2026-04-13 19:53 22.31502 -58.73559 36085 ft 434 kts 226°
2026-04-13 19:53 22.27018 -58.77925 36081 ft 434 kts 226°
2026-04-13 19:54 22.22532 -58.82287 36084 ft 434 kts 226°
2026-04-13 19:54 22.18800 -58.85914 36083 ft 434 kts 226°
2026-04-13 19:55 22.14309 -58.90274 36077 ft 434 kts 226°
2026-04-13 19:55 22.09818 -58.94632 36077 ft 434 kts 226°
2026-04-13 19:56 22.05330 -58.98982 36072 ft 433 kts 226°
2026-04-13 19:56 22.00848 -59.03320 36074 ft 433 kts 226°
2026-04-13 19:57 21.96374 -59.07651 36078 ft 432 kts 226°
2026-04-13 19:57 21.91910 -59.11967 36073 ft 431 kts 226°
2026-04-13 19:58 21.87451 -59.16272 36072 ft 430 kts 226°
2026-04-13 19:58 21.83028 -59.20541 36075 ft 429 kts 226°
2026-04-13 19:59 21.78584 -59.24826 36068 ft 429 kts 226°
2026-04-13 19:59 21.74141 -59.29106 36059 ft 429 kts 226°
2026-04-13 20:00 21.69691 -59.33389 36027 ft 429 kts 226°
2026-04-13 20:00 21.65238 -59.37669 36019 ft 429 kts 226°
2026-04-13 20:01 21.60790 -59.41944 36018 ft 429 kts 226°
2026-04-13 20:01 21.56337 -59.46221 36019 ft 429 kts 225°
2026-04-13 20:02 21.51881 -59.50495 36019 ft 429 kts 225°
2026-04-13 20:02 21.47430 -59.54760 36010 ft 429 kts 225°
2026-04-13 20:03 21.42972 -59.59029 36011 ft 429 kts 225°
2026-04-13 20:03 21.38515 -59.63294 36008 ft 429 kts 225°
2026-04-13 20:04 21.34060 -59.67552 36009 ft 429 kts 225°
2026-04-13 20:04 21.29609 -59.71804 36008 ft 429 kts 225°
2026-04-13 20:05 21.25153 -59.76058 36011 ft 429 kts 226°
2026-04-13 20:05 21.20694 -59.80311 36008 ft 429 kts 226°
2026-04-13 20:06 21.16233 -59.84560 36010 ft 429 kts 225°
2026-04-13 20:06 21.11780 -59.88799 36009 ft 428 kts 226°
2026-04-13 20:07 21.07325 -59.93036 36008 ft 428 kts 226°
2026-04-13 20:07 21.02871 -59.97271 36008 ft 428 kts 226°
2026-04-13 20:08 20.98502 -60.01573 36009 ft 425 kts 229°
2026-04-13 20:08 20.94379 -60.06030 36011 ft 425 kts 229°
2026-04-13 20:09 20.90225 -60.10545 36011 ft 426 kts 229°
2026-04-13 20:09 20.86060 -60.15056 35995 ft 426 kts 229°
2026-04-13 20:10 20.81886 -60.19564 35987 ft 426 kts 229°
2026-04-13 20:10 20.77708 -60.24067 35987 ft 426 kts 229°
2026-04-13 20:11 20.73532 -60.28567 35991 ft 426 kts 229°
2026-04-13 20:11 20.69350 -60.33067 35986 ft 426 kts 229°
2026-04-13 20:12 20.65170 -60.37561 35995 ft 426 kts 229°
2026-04-13 20:12 20.60993 -60.42048 35987 ft 426 kts 229°
2026-04-13 20:13 20.56818 -60.46531 35995 ft 426 kts 229°
2026-04-13 20:13 20.52645 -60.51009 35990 ft 425 kts 229°
2026-04-13 20:14 20.48471 -60.55483 35994 ft 426 kts 229°
2026-04-13 20:14 20.44319 -60.59928 35989 ft 425 kts 229°
2026-04-13 20:15 20.40141 -60.64399 35984 ft 426 kts 229°
2026-04-13 20:15 20.35960 -60.68871 35989 ft 426 kts 229°
2026-04-13 20:16 20.31777 -60.73340 35992 ft 426 kts 229°
2026-04-13 20:16 20.27588 -60.77812 35999 ft 426 kts 229°
2026-04-13 20:17 20.23404 -60.82275 35982 ft 426 kts 229°
2026-04-13 20:17 20.19217 -60.86738 35988 ft 425 kts 229°
2026-04-13 20:18 20.15032 -60.91195 35993 ft 426 kts 229°
2026-04-13 20:18 20.10842 -60.95654 35996 ft 426 kts 229°
2026-04-13 20:19 20.06652 -61.00108 35997 ft 426 kts 229°
2026-04-13 20:19 20.02458 -61.04565 35988 ft 427 kts 229°
2026-04-13 20:20 19.98253 -61.09027 35991 ft 427 kts 229°
2026-04-13 20:20 19.94051 -61.13484 35992 ft 427 kts 229°
2026-04-13 20:21 19.89850 -61.17936 35995 ft 426 kts 229°
2026-04-13 20:21 19.85659 -61.22374 35985 ft 425 kts 229°
2026-04-13 20:22 19.81464 -61.26814 35988 ft 425 kts 229°
2026-04-13 20:22 19.77284 -61.31235 35992 ft 425 kts 229°
2026-04-13 20:23 19.73098 -61.35657 36002 ft 424 kts 229°
2026-04-13 20:23 19.68913 -61.40077 36006 ft 425 kts 229°
2026-04-13 20:24 19.64717 -61.44501 36005 ft 425 kts 229°
2026-04-13 20:24 19.60517 -61.48928 35997 ft 426 kts 229°
2026-04-13 20:25 19.56345 -61.53324 35997 ft 426 kts 229°
2026-04-13 20:25 19.52133 -61.57755 35997 ft 426 kts 228°
2026-04-13 20:26 19.47926 -61.62180 35994 ft 426 kts 229°
2026-04-13 20:26 19.43722 -61.66597 35995 ft 425 kts 228°
2026-04-13 20:27 19.39523 -61.71009 35988 ft 425 kts 228°
2026-04-13 20:27 19.35354 -61.75427 35983 ft 420 kts 231°
2026-04-13 20:28 19.31815 -61.80199 35989 ft 408 kts 238°
2026-04-13 20:28 19.28642 -61.85209 35935 ft 409 kts 238°
2026-04-13 20:29 19.27071 -61.87666 35306 ft 398 kts 238°
2026-04-13 20:29 19.25513 -61.90095 34522 ft 401 kts 238°
2026-04-13 20:29 19.23946 -61.92539 33833 ft 402 kts 237°
2026-04-13 20:29 19.22377 -61.94983 33245 ft 401 kts 237°
2026-04-13 20:30 19.20815 -61.97415 32700 ft 398 kts 237°
2026-04-13 20:30 19.19262 -61.99830 32229 ft 395 kts 238°
2026-04-13 20:30 19.17719 -62.02231 31800 ft 395 kts 238°
2026-04-13 20:30 19.16174 -62.04635 31454 ft 394 kts 238°
2026-04-13 20:31 19.14638 -62.07026 31145 ft 393 kts 238°
2026-04-13 20:31 19.13104 -62.09412 30764 ft 393 kts 238°
2026-04-13 20:31 19.11569 -62.11800 30284 ft 391 kts 238°
2026-04-13 20:31 19.10043 -62.14168 29828 ft 388 kts 238°
2026-04-13 20:32 19.08531 -62.16515 29362 ft 385 kts 238°
2026-04-13 20:32 19.07028 -62.18848 28847 ft 383 kts 238°
2026-04-13 20:32 19.05530 -62.21177 28304 ft 383 kts 238°
2026-04-13 20:32 19.04050 -62.23464 27764 ft 380 kts 238°
2026-04-13 20:33 19.02576 -62.25745 27023 ft 373 kts 237°
2026-04-13 20:33 19.01101 -62.28039 26057 ft 373 kts 237°
2026-04-13 20:33 18.99625 -62.30340 25241 ft 380 kts 237°
2026-04-13 20:33 18.98147 -62.32619 24730 ft 380 kts 236°
2026-04-13 20:34 18.96677 -62.34889 24189 ft 369 kts 237°
2026-04-13 20:34 18.95243 -62.37119 23290 ft 367 kts 236°
2026-04-13 20:34 18.93806 -62.39350 22328 ft 368 kts 236°
2026-04-13 20:34 18.92368 -62.41576 21476 ft 365 kts 236°
2026-04-13 20:35 18.90947 -62.43775 20728 ft 361 kts 236°
2026-04-13 20:35 18.89540 -62.45949 19992 ft 356 kts 236°
2026-04-13 20:35 18.88153 -62.48089 19242 ft 352 kts 236°
2026-04-13 20:35 18.86778 -62.50211 18448 ft 348 kts 236°
2026-04-13 20:36 18.85403 -62.52330 17776 ft 352 kts 236°
2026-04-13 20:36 18.84029 -62.54451 17390 ft 349 kts 235°
2026-04-13 20:36 18.82666 -62.56549 17042 ft 341 kts 235°
2026-04-13 20:36 18.81341 -62.58591 16338 ft 336 kts 235°
2026-04-13 20:37 18.80020 -62.60633 15493 ft 337 kts 235°
2026-04-13 20:37 18.78699 -62.62670 14693 ft 336 kts 235°
2026-04-13 20:37 18.77380 -62.64703 13951 ft 334 kts 235°
2026-04-13 20:37 18.76076 -62.66713 13238 ft 331 kts 235°
2026-04-13 20:38 18.74777 -62.68715 12494 ft 329 kts 235°
2026-04-13 20:38 18.73488 -62.70702 11753 ft 328 kts 235°
2026-04-13 20:38 18.72192 -62.72697 11143 ft 332 kts 235°
2026-04-13 20:38 18.70893 -62.74696 10836 ft 328 kts 235°
2026-04-13 20:39 18.69610 -62.76670 10553 ft 325 kts 235°
2026-04-13 20:39 18.68335 -62.78630 10216 ft 323 kts 235°
2026-04-13 20:39 18.67062 -62.80585 9853 ft 323 kts 234°
2026-04-13 20:39 18.65810 -62.82508 9584 ft 319 kts 234°
2026-04-13 20:40 18.64603 -62.84364 9411 ft 297 kts 234°
2026-04-13 20:40 18.63460 -62.86123 9027 ft 286 kts 234°
2026-04-13 20:40 18.62347 -62.87832 8470 ft 280 kts 234°
2026-04-13 20:40 18.61249 -62.89518 7887 ft 277 kts 234°
2026-04-13 20:41 18.60161 -62.91189 7292 ft 275 kts 234°
2026-04-13 20:41 18.59081 -62.92846 6691 ft 273 kts 234°
2026-04-13 20:41 18.58008 -62.94489 6108 ft 270 kts 233°
2026-04-13 20:41 18.56949 -62.96113 5545 ft 268 kts 233°
2026-04-13 20:42 18.55898 -62.97724 4970 ft 265 kts 233°
2026-04-13 20:42 18.54859 -62.99318 4396 ft 263 kts 233°
2026-04-13 20:42 18.53830 -63.00895 3808 ft 260 kts 233°
2026-04-13 20:42 18.52805 -63.02467 3207 ft 260 kts 233°
2026-04-13 20:43 18.52123 -63.03511 2916 ft 262 kts 233°
2026-04-13 20:43 18.51093 -63.05087 2715 ft 258 kts 233°
2026-04-13 20:43 18.50094 -63.06618 2633 ft 250 kts 233°
2026-04-13 20:43 18.49104 -63.08132 2603 ft 254 kts 233°
2026-04-13 20:44 18.48092 -63.09678 2605 ft 259 kts 233°
2026-04-13 20:44 18.47068 -63.11247 2590 ft 259 kts 233°
2026-04-13 20:44 18.46056 -63.12796 2580 ft 252 kts 233°
2026-04-13 20:44 18.45085 -63.14283 2576 ft 240 kts 233°
2026-04-13 20:45 18.44149 -63.15715 2602 ft 238 kts 233°
2026-04-13 20:45 18.43209 -63.17148 2591 ft 238 kts 233°
2026-04-13 20:45 18.42258 -63.18555 2580 ft 231 kts 225°
2026-04-13 20:46 18.39447 -63.20016 2613 ft 234 kts 198°
2026-04-13 20:46 18.37924 -63.20613 2605 ft 233 kts 198°
2026-04-13 20:46 18.36417 -63.21205 2584 ft 229 kts 198°
2026-04-13 20:46 18.34934 -63.21788 2588 ft 226 kts 198°
2026-04-13 20:47 18.33466 -63.22364 2599 ft 225 kts 198°
2026-04-13 20:47 18.31983 -63.22945 2612 ft 230 kts 198°
2026-04-13 20:47 18.30477 -63.23536 2609 ft 231 kts 198°
2026-04-13 20:47 18.28974 -63.24125 2588 ft 230 kts 198°
2026-04-13 20:48 18.27479 -63.24713 2602 ft 229 kts 198°
2026-04-13 20:48 18.25988 -63.25298 2591 ft 228 kts 198°
2026-04-13 20:48 18.24506 -63.25882 2600 ft 227 kts 198°
2026-04-13 20:48 18.23024 -63.26464 2599 ft 227 kts 198°
2026-04-13 20:49 18.21541 -63.27047 2602 ft 228 kts 198°
2026-04-13 20:49 18.20052 -63.27632 2602 ft 228 kts 198°
2026-04-13 20:49 18.18564 -63.28216 2604 ft 229 kts 198°
2026-04-13 20:49 18.17067 -63.28804 2603 ft 230 kts 198°
2026-04-13 20:50 18.15584 -63.29387 2599 ft 231 kts 198°
2026-04-13 20:50 18.14077 -63.29978 2599 ft 229 kts 198°
2026-04-13 20:50 18.12625 -63.30548 2575 ft 215 kts 198°
2026-04-13 20:50 18.11264 -63.30992 2593 ft 199 kts 181°
2026-04-13 20:51 18.09921 -63.30827 2621 ft 194 kts 168°
2026-04-13 20:51 18.08573 -63.30605 2606 ft 197 kts 169°
2026-04-13 20:51 18.07217 -63.30395 2592 ft 197 kts 169°
2026-04-13 20:51 18.05866 -63.30184 2601 ft 196 kts 169°
2026-04-13 20:52 18.04515 -63.29972 2600 ft 196 kts 169°
2026-04-13 20:52 18.03178 -63.29734 2588 ft 193 kts 160°
2026-04-13 20:52 18.02135 -63.28936 2589 ft 187 kts 122°
2026-04-13 20:52 18.01724 -63.27621 2483 ft 197 kts 93°
2026-04-13 20:53 18.01884 -63.26207 2347 ft 194 kts 82°
2026-04-13 20:53 18.02091 -63.24802 2143 ft 194 kts 82°
2026-04-13 20:53 18.02287 -63.23451 2046 ft 182 kts 82°
2026-04-13 20:53 18.02472 -63.22184 1849 ft 168 kts 82°
2026-04-13 20:54 18.02644 -63.21000 1689 ft 163 kts 82°
2026-04-13 20:54 18.02815 -63.19817 1472 ft 163 kts 82°
2026-04-13 20:54 18.02979 -63.18667 1266 ft 155 kts 82°
2026-04-13 20:54 18.03139 -63.17573 1080 ft 149 kts 82°
2026-04-13 20:55 18.03289 -63.16503 929 ft 149 kts 82°
2026-04-13 20:55 18.03442 -63.15414 711 ft 150 kts 83°
2026-04-13 20:55 18.03561 -63.14335 484 ft 146 kts 84°
2026-04-13 20:55 18.03716 -63.13312 335 ft 142 kts 77°
2026-04-13 20:56 18.03903 -63.12265 110 ft 148 kts 82°
2026-04-13 20:56 18.04042 -63.11252 30 ft 127 kts 82°
2026-04-13 20:56 18.04139 -63.10569 29 ft 70 kts 82°
2026-04-13 20:56 18.04184 -63.10250 26 ft 24 kts 81°
2026-04-13 20:57 18.04210 -63.10071 27 ft 25 kts 82°
2026-04-13 20:57 18.04253 -63.09936 27 ft 18 kts 51°
2026-04-13 20:57 18.04268 -63.09879 30 ft 2 kts 133°
2026-04-13 20:57 18.04261 -63.09878 25 ft 1 kts 167°
2026-04-13 20:58 18.04252 -63.09881 25 ft 2 kts 204°
2026-04-13 20:58 18.04240 -63.09908 25 ft 6 kts 253°
2026-04-13 20:58 18.04227 -63.09973 27 ft 12 kts 261°
2026-04-13 20:58 18.04205 -63.10111 27 ft 22 kts 261°
2026-04-13 20:59 18.04179 -63.10292 25 ft 28 kts 261°
2026-04-13 20:59 18.04149 -63.10507 26 ft 30 kts 262°
2026-04-13 20:59 18.04125 -63.10681 26 ft 26 kts 263°
2026-04-13 20:59 18.04105 -63.10830 28 ft 20 kts 261°
2026-04-13 21:00 18.04091 -63.10948 26 ft 15 kts 285°
2026-04-13 21:00 18.04157 -63.11025 26 ft 14 kts 287°
2026-04-13 21:00 18.04153 -63.11146 28 ft 19 kts 261°
2026-04-13 21:00 18.04139 -63.11241 26 ft 7 kts 260°
2026-04-13 21:01 18.04159 -63.11286 26 ft 9 kts 327°
2026-04-13 21:01 18.04221 -63.11320 30 ft 6 kts 308°
2026-04-13 21:01 18.04231 -63.11357 30 ft 7 kts 273°
2026-04-13 21:01 18.04234 -63.11392 29 ft 6 kts 290°
2026-04-13 21:02 18.04256 -63.11413 26 ft 1 kts 327°
2026-04-13 21:02 18.04280 -63.11422 26 ft 6 kts 342°
2026-04-13 21:02 18.04300 -63.11426 31 ft 5 kts 349°
2026-04-13 21:02 18.04320 -63.11430 26 ft 0 kts 351°